Time,TemperatureF,DewpointF,PressureIn,WindDirection,WindDirectionDegrees,WindSpeedMPH,WindSpeedGustMPH,Humidity,HourlyPrecipIn,Conditions,Clouds,dailyrainin,SoftwareType,DateUTC
2013-09-27 00:00:00,65.1,53.1,29.96,West,270,0.0,0.0,65,0.00,,---,0.00,VWS V14.01,2013-09-27 04:00:00,
2013-09-27 00:01:00,65.1,53.1,29.96,West,270,0.0,0.0,65,0.00,,---,0.00,VWS V14.01,2013-09-27 04:01:00,
2013-09-27 00:06:00,64.9,53.3,29.96,West,270,0.0,0.0,66,0.00,,---,0.00,VWS V14.01,2013-09-27 04:06:00,
2013-09-27 00:07:00,64.9,53.3,29.96,West,270,0.0,0.0,66,0.00,,---,0.00,VWS V14.01,2013-09-27 04:07:00,
2013-09-27 00:08:00,64.9,53.3,29.96,West,270,0.0,0.0,66,0.00,,---,0.00,VWS V14.01,2013-09-27 04:08:00,
2013-09-27 00:11:00,64.7,53.5,29.96,West,270,0.0,0.0,67,0.00,,---,0.00,VWS V14.01,2013-09-27 04:11:00,
2013-09-27 00:12:00,64.7,53.5,29.96,West,270,0.0,0.0,67,0.00,,---,0.00,VWS V14.01,2013-09-27 04:12:00,
2013-09-27 00:13:00,64.7,53.5,29.96,West,270,0.0,0.0,67,0.00,,---,0.00,VWS V14.01,2013-09-27 04:13:00,
2013-09-27 00:16:00,64.7,53.5,29.97,West,270,0.0,0.0,67,0.00,,---,0.00,VWS V14.01,2013-09-27 04:16:00,
2013-09-27 00:17:00,64.5,53.3,29.97,West,270,0.0,0.0,67,0.00,,---,0.00,VWS V14.01,2013-09-27 04:17:00,
2013-09-27 00:19:00,64.3,53.1,29.97,West,270,0.0,0.0,67,0.00,,---,0.00,VWS V14.01,2013-09-27 04:19:00,
2013-09-27 00:21:00,64.3,53.5,29.97,West,270,0.0,0.0,68,0.00,,---,0.00,VWS V14.01,2013-09-27 04:21:00,
2013-09-27 00:22:00,64.3,53.5,29.97,West,270,0.0,0.0,68,0.00,,---,0.00,VWS V14.01,2013-09-27 04:22:00,
2013-09-27 00:23:00,64.3,53.5,29.97,West,270,0.0,0.0,68,0.00,,---,0.00,VWS V14.01,2013-09-27 04:23:00,
2013-09-27 00:25:00,64.5,53.7,29.97,West,270,0.0,0.0,68,0.00,,---,0.00,VWS V14.01,2013-09-27 04:25:00,
2013-09-27 00:27:00,64.3,53.5,29.96,West,270,0.0,0.0,68,0.00,,---,0.00,VWS V14.01,2013-09-27 04:27:00,
2013-09-27 00:28:00,64.3,53.5,29.97,West,270,0.0,0.0,68,0.00,,---,0.00,VWS V14.01,2013-09-27 04:28:00,
2013-09-27 00:30:00,64.3,53.5,29.97,West,270,0.0,0.0,68,0.00,,---,0.00,VWS V14.01,2013-09-27 04:30:00,
2013-09-27 00:32:00,64.3,53.5,29.97,West,270,0.0,0.0,68,0.00,,---,0.00,VWS V14.01,2013-09-27 04:32:00,
2013-09-27 00:33:00,64.2,53.8,29.97,West,270,0.0,0.0,69,0.00,,---,0.00,VWS V14.01,2013-09-27 04:33:00,
2013-09-27 00:34:00,64.2,53.8,29.97,West,270,0.0,0.0,69,0.00,,---,0.00,VWS V14.01,2013-09-27 04:34:00,
2013-09-27 00:35:00,64.0,53.6,29.97,West,270,0.0,0.0,69,0.00,,---,0.00,VWS V14.01,2013-09-27 04:35:00,
2013-09-27 00:38:00,64.0,53.6,29.97,West,270,0.0,0.0,69,0.00,,---,0.00,VWS V14.01,2013-09-27 04:38:00,
2013-09-27 00:39:00,64.0,53.6,29.97,West,270,0.0,0.0,69,0.00,,---,0.00,VWS V14.01,2013-09-27 04:39:00,
2013-09-27 00:40:00,64.0,53.6,29.97,West,270,0.0,0.0,69,0.00,,---,0.00,VWS V14.01,2013-09-27 04:40:00,
2013-09-27 00:43:00,64.0,54.0,29.97,West,270,0.0,0.0,70,0.00,,---,0.00,VWS V14.01,2013-09-27 04:43:00,
2013-09-27 00:44:00,64.0,54.0,29.97,West,270,0.0,0.0,70,0.00,,---,0.00,VWS V14.01,2013-09-27 04:44:00,
2013-09-27 00:46:00,63.8,53.8,29.97,West,270,0.0,0.0,70,0.00,,---,0.00,VWS V14.01,2013-09-27 04:46:00,
2013-09-27 00:48:00,63.8,53.8,29.97,West,270,0.0,0.0,70,0.00,,---,0.00,VWS V14.01,2013-09-27 04:48:00,
2013-09-27 00:49:00,63.8,53.8,29.97,West,270,0.0,0.0,70,0.00,,---,0.00,VWS V14.01,2013-09-27 04:49:00,
2013-09-27 00:50:00,63.8,53.8,29.97,West,270,0.0,0.0,70,0.00,,---,0.00,VWS V14.01,2013-09-27 04:50:00,
2013-09-27 00:51:00,63.8,53.8,29.97,West,270,0.0,0.0,70,0.00,,---,0.00,VWS V14.01,2013-09-27 04:51:00,
2013-09-27 00:53:00,63.8,53.8,29.97,West,270,0.0,0.0,70,0.00,,---,0.00,VWS V14.01,2013-09-27 04:53:00,
2013-09-27 00:54:00,63.8,53.8,29.97,West,270,0.0,0.0,70,0.00,,---,0.00,VWS V14.01,2013-09-27 04:54:00,
2013-09-27 00:55:00,63.8,53.8,29.97,West,270,0.0,0.0,70,0.00,,---,0.00,VWS V14.01,2013-09-27 04:55:00,
2013-09-27 00:57:00,63.8,53.8,29.97,West,270,0.0,0.0,70,0.00,,---,0.00,VWS V14.01,2013-09-27 04:57:00,
2013-09-27 00:59:00,63.8,53.8,29.97,West,270,0.0,0.0,70,0.00,,---,0.00,VWS V14.01,2013-09-27 04:59:00,
2013-09-27 01:00:00,63.8,54.2,29.97,West,270,0.0,0.0,71,0.00,,---,0.00,VWS V14.01,2013-09-27 05:00:00,
2013-09-27 01:02:00,63.8,54.2,29.97,West,270,0.0,0.0,71,0.00,,---,0.00,VWS V14.01,2013-09-27 05:02:00,
2013-09-27 01:04:00,63.6,54.0,29.97,West,270,0.0,0.0,71,0.00,,---,0.00,VWS V14.01,2013-09-27 05:04:00,
2013-09-27 01:05:00,63.6,54.0,29.97,West,270,0.0,0.0,71,0.00,,---,0.00,VWS V14.01,2013-09-27 05:05:00,
2013-09-27 01:07:00,63.8,54.2,29.97,West,270,0.0,0.0,71,0.00,,---,0.00,VWS V14.01,2013-09-27 05:07:00,
2013-09-27 01:09:00,63.6,54.0,29.96,West,270,0.0,0.0,71,0.00,,---,0.00,VWS V14.01,2013-09-27 05:09:00,
2013-09-27 01:10:00,63.6,54.0,29.97,West,270,0.0,0.0,71,0.00,,---,0.00,VWS V14.01,2013-09-27 05:10:00,
2013-09-27 01:11:00,63.6,54.0,29.97,West,270,0.0,0.0,71,0.00,,---,0.00,VWS V14.01,2013-09-27 05:11:00,
2013-09-27 01:12:00,63.6,54.0,29.97,West,270,0.0,0.0,71,0.00,,---,0.00,VWS V14.01,2013-09-27 05:12:00,
2013-09-27 01:13:00,63.6,54.0,29.97,West,270,0.0,0.0,71,0.00,,---,0.00,VWS V14.01,2013-09-27 05:13:00,
2013-09-27 01:15:00,63.6,54.0,29.96,West,270,0.0,0.0,71,0.00,,---,0.00,VWS V14.01,2013-09-27 05:15:00,
2013-09-27 01:16:00,63.6,54.0,29.96,West,270,0.0,0.0,71,0.00,,---,0.00,VWS V14.01,2013-09-27 05:16:00,
2013-09-27 01:17:00,63.4,53.8,29.96,West,270,0.0,0.0,71,0.00,,---,0.00,VWS V14.01,2013-09-27 05:17:00,
2013-09-27 01:18:00,63.4,53.8,29.96,West,270,0.0,0.0,71,0.00,,---,0.00,VWS V14.01,2013-09-27 05:18:00,
2013-09-27 01:20:00,63.6,54.0,29.96,West,270,0.0,0.0,71,0.00,,---,0.00,VWS V14.01,2013-09-27 05:20:00,
2013-09-27 01:21:00,63.4,53.8,29.96,West,270,0.0,0.0,71,0.00,,---,0.00,VWS V14.01,2013-09-27 05:21:00,
2013-09-27 01:23:00,63.4,53.8,29.96,West,270,0.0,0.0,71,0.00,,---,0.00,VWS V14.01,2013-09-27 05:23:00,
2013-09-27 01:25:00,63.3,53.8,29.96,West,270,0.0,0.0,71,0.00,,---,0.00,VWS V14.01,2013-09-27 05:25:00,
2013-09-27 01:27:00,63.3,54.1,29.96,West,270,0.0,0.0,72,0.00,,---,0.00,VWS V14.01,2013-09-27 05:27:00,
2013-09-27 01:28:00,63.3,54.1,29.96,West,270,0.0,0.0,72,0.00,,---,0.00,VWS V14.01,2013-09-27 05:28:00,
2013-09-27 01:30:00,63.3,54.1,29.96,West,270,0.0,0.0,72,0.00,,---,0.00,VWS V14.01,2013-09-27 05:30:00,
2013-09-27 01:31:00,63.3,54.1,29.96,West,270,0.0,0.0,72,0.00,,---,0.00,VWS V14.01,2013-09-27 05:31:00,
2013-09-27 01:32:00,63.1,53.9,29.96,West,270,0.0,0.0,72,0.00,,---,0.00,VWS V14.01,2013-09-27 05:32:00,
2013-09-27 01:33:00,63.1,53.9,29.96,West,270,0.0,0.0,72,0.00,,---,0.00,VWS V14.01,2013-09-27 05:33:00,
2013-09-27 01:35:00,63.1,54.3,29.96,West,270,0.0,0.0,73,0.00,,---,0.00,VWS V14.01,2013-09-27 05:35:00,
2013-09-27 01:36:00,63.1,54.3,29.96,West,270,0.0,0.0,73,0.00,,---,0.00,VWS V14.01,2013-09-27 05:36:00,
2013-09-27 01:37:00,63.1,54.3,29.96,West,270,0.0,0.0,73,0.00,,---,0.00,VWS V14.01,2013-09-27 05:37:00,
2013-09-27 01:38:00,63.1,54.3,29.96,West,270,0.0,0.0,73,0.00,,---,0.00,VWS V14.01,2013-09-27 05:38:00,
2013-09-27 01:39:00,63.1,54.3,29.96,West,270,0.0,0.0,73,0.00,,---,0.00,VWS V14.01,2013-09-27 05:39:00,
2013-09-27 01:41:00,63.1,54.3,29.96,West,270,0.0,0.0,73,0.00,,---,0.00,VWS V14.01,2013-09-27 05:41:00,
2013-09-27 01:42:00,63.1,54.3,29.96,West,270,0.0,0.0,73,0.00,,---,0.00,VWS V14.01,2013-09-27 05:42:00,
2013-09-27 01:43:00,63.1,54.3,29.96,West,270,0.0,0.0,73,0.00,,---,0.00,VWS V14.01,2013-09-27 05:43:00,
2013-09-27 01:44:00,63.1,54.3,29.96,West,270,0.0,0.0,73,0.00,,---,0.00,VWS V14.01,2013-09-27 05:44:00,
2013-09-27 01:46:00,63.1,54.3,29.96,West,270,0.0,0.0,73,0.00,,---,0.00,VWS V14.01,2013-09-27 05:46:00,
2013-09-27 01:47:00,63.1,54.3,29.96,West,270,0.0,0.0,73,0.00,,---,0.00,VWS V14.01,2013-09-27 05:47:00,
2013-09-27 01:48:00,63.1,54.3,29.96,West,270,0.0,0.0,73,0.00,,---,0.00,VWS V14.01,2013-09-27 05:48:00,
2013-09-27 01:49:00,63.1,54.3,29.96,West,270,0.0,0.0,73,0.00,,---,0.00,VWS V14.01,2013-09-27 05:49:00,
2013-09-27 01:51:00,62.7,53.9,29.96,West,270,0.0,0.0,73,0.00,,---,0.00,VWS V14.01,2013-09-27 05:51:00,
2013-09-27 01:52:00,62.7,53.9,29.96,West,270,0.0,0.0,73,0.00,,---,0.00,VWS V14.01,2013-09-27 05:52:00,
2013-09-27 01:53:00,63.1,54.3,29.96,West,270,0.0,0.0,73,0.00,,---,0.00,VWS V14.01,2013-09-27 05:53:00,
2013-09-27 01:54:00,63.1,54.3,29.96,West,270,0.0,0.0,73,0.00,,---,0.00,VWS V14.01,2013-09-27 05:54:00,
2013-09-27 01:57:00,63.1,54.3,29.96,West,270,0.0,0.0,73,0.00,,---,0.00,VWS V14.01,2013-09-27 05:57:00,
2013-09-27 01:59:00,63.1,54.3,29.96,West,270,0.0,0.0,73,0.00,,---,0.00,VWS V14.01,2013-09-27 05:59:00,
2013-09-27 02:00:00,63.1,54.3,29.96,West,270,0.0,0.0,73,0.00,,---,0.00,VWS V14.01,2013-09-27 06:00:00,
2013-09-27 02:02:00,63.3,54.5,29.96,West,270,0.0,0.0,73,0.00,,---,0.00,VWS V14.01,2013-09-27 06:02:00,
2013-09-27 02:04:00,63.1,53.9,29.96,West,270,0.0,0.0,72,0.00,,---,0.00,VWS V14.01,2013-09-27 06:04:00,
2013-09-27 02:05:00,63.1,53.9,29.96,West,270,0.0,0.0,72,0.00,,---,0.00,VWS V14.01,2013-09-27 06:05:00,
2013-09-27 02:06:00,63.1,53.9,29.96,West,270,0.0,0.0,72,0.00,,---,0.00,VWS V14.01,2013-09-27 06:06:00,
2013-09-27 02:07:00,63.3,54.1,29.97,West,270,0.0,0.0,72,0.00,,---,0.00,VWS V14.01,2013-09-27 06:07:00,
2013-09-27 02:08:00,63.3,54.1,29.97,West,270,0.0,0.0,72,0.00,,---,0.00,VWS V14.01,2013-09-27 06:08:00,
2013-09-27 02:10:00,63.3,53.8,29.96,West,270,0.0,0.0,71,0.00,,---,0.00,VWS V14.01,2013-09-27 06:10:00,
2013-09-27 02:11:00,63.1,53.6,29.96,West,270,0.0,0.0,71,0.00,,---,0.00,VWS V14.01,2013-09-27 06:11:00,
2013-09-27 02:12:00,63.3,54.1,29.97,West,270,0.0,0.0,72,0.00,,---,0.00,VWS V14.01,2013-09-27 06:12:00,
2013-09-27 02:13:00,63.3,54.1,29.97,West,270,0.0,0.0,72,0.00,,---,0.00,VWS V14.01,2013-09-27 06:13:00,
2013-09-27 02:15:00,63.3,53.8,29.97,West,270,0.0,0.0,71,0.00,,---,0.00,VWS V14.01,2013-09-27 06:15:00,
2013-09-27 02:16:00,63.1,53.6,29.97,West,270,0.0,0.0,71,0.00,,---,0.00,VWS V14.01,2013-09-27 06:16:00,
2013-09-27 02:17:00,63.1,53.6,29.97,West,270,0.0,0.0,71,0.00,,---,0.00,VWS V14.01,2013-09-27 06:17:00,
2013-09-27 02:19:00,63.3,54.1,29.97,West,270,0.0,0.0,72,0.00,,---,0.00,VWS V14.01,2013-09-27 06:19:00,
2013-09-27 02:20:00,63.3,54.1,29.97,West,270,0.0,0.0,72,0.00,,---,0.00,VWS V14.01,2013-09-27 06:20:00,
2013-09-27 02:22:00,63.1,53.6,29.97,West,270,0.0,0.0,71,0.00,,---,0.00,VWS V14.01,2013-09-27 06:22:00,
2013-09-27 02:23:00,63.1,53.6,29.97,West,270,0.0,0.0,71,0.00,,---,0.00,VWS V14.01,2013-09-27 06:23:00,
2013-09-27 02:25:00,63.1,53.6,29.97,West,270,0.0,0.0,71,0.00,,---,0.00,VWS V14.01,2013-09-27 06:25:00,
2013-09-27 02:26:00,63.1,53.6,29.97,West,270,0.0,0.0,71,0.00,,---,0.00,VWS V14.01,2013-09-27 06:26:00,
2013-09-27 02:27:00,63.1,53.6,29.97,West,270,0.0,0.0,71,0.00,,---,0.00,VWS V14.01,2013-09-27 06:27:00,
2013-09-27 02:28:00,63.1,53.9,29.97,West,270,0.0,0.0,72,0.00,,---,0.00,VWS V14.01,2013-09-27 06:28:00,
2013-09-27 02:30:00,63.1,53.9,29.97,West,270,0.0,0.0,72,0.00,,---,0.00,VWS V14.01,2013-09-27 06:30:00,
2013-09-27 02:31:00,63.1,53.9,29.97,West,270,0.0,0.0,72,0.00,,---,0.00,VWS V14.01,2013-09-27 06:31:00,
2013-09-27 02:32:00,63.1,53.9,29.97,West,270,0.0,0.0,72,0.00,,---,0.00,VWS V14.01,2013-09-27 06:32:00,
2013-09-27 02:33:00,63.1,53.9,29.97,West,270,0.0,0.0,72,0.00,,---,0.00,VWS V14.01,2013-09-27 06:33:00,
2013-09-27 02:35:00,62.9,53.8,29.97,West,270,0.0,0.0,72,0.00,,---,0.00,VWS V14.01,2013-09-27 06:35:00,
2013-09-27 02:37:00,63.1,53.9,29.97,West,270,0.0,0.0,72,0.00,,---,0.00,VWS V14.01,2013-09-27 06:37:00,
2013-09-27 02:38:00,62.7,53.5,29.97,West,270,0.0,0.0,72,0.00,,---,0.00,VWS V14.01,2013-09-27 06:38:00,
2013-09-27 02:39:00,62.7,53.5,29.97,West,270,0.0,0.0,72,0.00,,---,0.00,VWS V14.01,2013-09-27 06:39:00,
2013-09-27 02:40:00,62.9,53.8,29.97,West,270,0.0,0.0,72,0.00,,---,0.00,VWS V14.01,2013-09-27 06:40:00,
2013-09-27 02:43:00,62.7,53.5,29.97,West,270,0.0,0.0,72,0.00,,---,0.00,VWS V14.01,2013-09-27 06:43:00,
2013-09-27 02:44:00,62.7,53.5,29.97,West,270,0.0,0.0,72,0.00,,---,0.00,VWS V14.01,2013-09-27 06:44:00,
2013-09-27 02:45:00,62.7,53.5,29.97,West,270,0.0,0.0,72,0.00,,---,0.00,VWS V14.01,2013-09-27 06:45:00,
2013-09-27 02:48:00,62.5,53.4,29.97,West,270,0.0,0.0,72,0.00,,---,0.00,VWS V14.01,2013-09-27 06:48:00,
2013-09-27 02:49:00,62.5,53.4,29.97,West,270,0.0,0.0,72,0.00,,---,0.00,VWS V14.01,2013-09-27 06:49:00,
2013-09-27 02:50:00,62.5,53.4,29.97,West,270,0.0,0.0,72,0.00,,---,0.00,VWS V14.01,2013-09-27 06:50:00,
2013-09-27 02:51:00,62.5,53.4,29.97,West,270,0.0,0.0,72,0.00,,---,0.00,VWS V14.01,2013-09-27 06:51:00,
2013-09-27 02:53:00,62.4,53.3,29.97,West,270,0.0,0.0,72,0.00,,---,0.00,VWS V14.01,2013-09-27 06:53:00,
2013-09-27 02:54:00,62.4,53.3,29.97,West,270,0.0,0.0,72,0.00,,---,0.00,VWS V14.01,2013-09-27 06:54:00,
2013-09-27 02:56:00,62.5,53.4,29.97,West,270,0.0,0.0,72,0.00,,---,0.00,VWS V14.01,2013-09-27 06:56:00,
2013-09-27 02:57:00,62.2,53.5,29.98,West,270,0.0,0.0,73,0.00,,---,0.00,VWS V14.01,2013-09-27 06:57:00,
2013-09-27 02:59:00,62.2,53.5,29.97,West,270,0.0,0.0,73,0.00,,---,0.00,VWS V14.01,2013-09-27 06:59:00,
2013-09-27 03:01:00,62.2,53.5,29.97,West,270,0.0,0.0,73,0.00,,---,0.00,VWS V14.01,2013-09-27 07:01:00,
2013-09-27 03:02:00,62.2,53.5,29.97,West,270,0.0,0.0,73,0.00,,---,0.00,VWS V14.01,2013-09-27 07:02:00,
2013-09-27 03:04:00,62.4,53.6,29.97,West,270,0.0,0.0,73,0.00,,---,0.00,VWS V14.01,2013-09-27 07:04:00,
2013-09-27 03:05:00,62.4,53.6,29.97,West,270,0.0,0.0,73,0.00,,---,0.00,VWS V14.01,2013-09-27 07:05:00,
2013-09-27 03:06:00,62.2,53.5,29.97,West,270,0.0,0.0,73,0.00,,---,0.00,VWS V14.01,2013-09-27 07:06:00,
2013-09-27 03:08:00,62.2,53.5,29.97,West,270,0.0,0.0,73,0.00,,---,0.00,VWS V14.01,2013-09-27 07:08:00,
2013-09-27 03:09:00,62.2,53.5,29.97,West,270,0.0,0.0,73,0.00,,---,0.00,VWS V14.01,2013-09-27 07:09:00,
2013-09-27 03:10:00,62.0,53.3,29.97,West,270,0.0,0.0,73,0.00,,---,0.00,VWS V14.01,2013-09-27 07:10:00,
2013-09-27 03:11:00,62.0,53.3,29.97,West,270,0.0,0.0,73,0.00,,---,0.00,VWS V14.01,2013-09-27 07:11:00,
2013-09-27 03:13:00,62.0,53.3,29.97,West,270,0.0,0.0,73,0.00,,---,0.00,VWS V14.01,2013-09-27 07:13:00,
2013-09-27 03:15:00,62.0,53.6,29.97,West,270,0.0,0.0,74,0.00,,---,0.00,VWS V14.01,2013-09-27 07:15:00,
2013-09-27 03:16:00,61.8,53.4,29.97,West,270,0.0,0.0,74,0.00,,---,0.00,VWS V14.01,2013-09-27 07:16:00,
2013-09-27 03:18:00,62.0,53.6,29.97,West,270,0.0,0.0,74,0.00,,---,0.00,VWS V14.01,2013-09-27 07:18:00,
2013-09-27 03:20:00,62.0,53.6,29.97,West,270,0.0,0.0,74,0.00,,---,0.00,VWS V14.01,2013-09-27 07:20:00,
2013-09-27 03:21:00,62.0,53.6,29.97,West,270,0.0,0.0,74,0.00,,---,0.00,VWS V14.01,2013-09-27 07:21:00,
2013-09-27 03:22:00,62.0,53.6,29.97,West,270,0.0,0.0,74,0.00,,---,0.00,VWS V14.01,2013-09-27 07:22:00,
2013-09-27 03:23:00,62.0,53.6,29.97,West,270,0.0,0.0,74,0.00,,---,0.00,VWS V14.01,2013-09-27 07:23:00,
2013-09-27 03:24:00,62.0,53.6,29.97,West,270,0.0,0.0,74,0.00,,---,0.00,VWS V14.01,2013-09-27 07:24:00,
2013-09-27 03:25:00,61.8,53.4,29.97,West,270,0.0,0.0,74,0.00,,---,0.00,VWS V14.01,2013-09-27 07:25:00,
2013-09-27 03:26:00,61.8,53.4,29.97,West,270,0.0,0.0,74,0.00,,---,0.00,VWS V14.01,2013-09-27 07:26:00,
2013-09-27 03:27:00,61.8,53.4,29.97,West,270,0.0,0.0,74,0.00,,---,0.00,VWS V14.01,2013-09-27 07:27:00,
2013-09-27 03:28:00,61.8,53.4,29.97,West,270,0.0,0.0,74,0.00,,---,0.00,VWS V14.01,2013-09-27 07:28:00,
2013-09-27 03:29:00,61.6,53.2,29.97,West,270,0.0,0.0,74,0.00,,---,0.00,VWS V14.01,2013-09-27 07:29:00,
2013-09-27 03:30:00,61.6,53.2,29.97,West,270,0.0,0.0,74,0.00,,---,0.00,VWS V14.01,2013-09-27 07:30:00,
2013-09-27 03:32:00,61.8,53.4,29.97,West,270,0.0,0.0,74,0.00,,---,0.00,VWS V14.01,2013-09-27 07:32:00,
2013-09-27 03:33:00,61.8,53.4,29.97,West,270,0.0,0.0,74,0.00,,---,0.00,VWS V14.01,2013-09-27 07:33:00,
2013-09-27 03:34:00,61.8,53.4,29.97,West,270,0.0,0.0,74,0.00,,---,0.00,VWS V14.01,2013-09-27 07:34:00,
2013-09-27 03:36:00,61.5,53.2,29.97,West,270,0.0,0.0,74,0.00,,---,0.00,VWS V14.01,2013-09-27 07:36:00,
2013-09-27 03:37:00,61.5,53.2,29.97,West,270,0.0,0.0,74,0.00,,---,0.00,VWS V14.01,2013-09-27 07:37:00,
2013-09-27 03:38:00,61.5,53.2,29.97,West,270,0.0,0.0,74,0.00,,---,0.00,VWS V14.01,2013-09-27 07:38:00,
2013-09-27 03:41:00,61.5,53.2,29.97,West,270,0.0,0.0,74,0.00,,---,0.00,VWS V14.01,2013-09-27 07:41:00,
2013-09-27 03:42:00,61.5,53.2,29.97,West,270,0.0,0.0,74,0.00,,---,0.00,VWS V14.01,2013-09-27 07:42:00,
2013-09-27 03:43:00,61.5,53.2,29.97,West,270,0.0,0.0,74,0.00,,---,0.00,VWS V14.01,2013-09-27 07:43:00,
2013-09-27 03:44:00,61.5,53.2,29.97,West,270,0.0,0.0,74,0.00,,---,0.00,VWS V14.01,2013-09-27 07:44:00,
2013-09-27 03:46:00,61.5,53.2,29.97,West,270,0.0,0.0,74,0.00,,---,0.00,VWS V14.01,2013-09-27 07:46:00,
2013-09-27 03:47:00,61.5,53.2,29.97,West,270,0.0,0.0,74,0.00,,---,0.00,VWS V14.01,2013-09-27 07:47:00,
2013-09-27 03:48:00,61.5,53.2,29.97,West,270,0.0,0.0,74,0.00,,---,0.00,VWS V14.01,2013-09-27 07:48:00,
2013-09-27 03:50:00,61.3,53.0,29.97,West,270,0.0,0.0,74,0.00,,---,0.00,VWS V14.01,2013-09-27 07:50:00,
2013-09-27 03:52:00,61.3,53.0,29.97,West,270,0.0,0.0,74,0.00,,---,0.00,VWS V14.01,2013-09-27 07:52:00,
2013-09-27 03:53:00,61.3,53.3,29.97,West,270,0.0,0.0,75,0.00,,---,0.00,VWS V14.01,2013-09-27 07:53:00,
2013-09-27 03:56:00,61.3,53.3,29.97,West,270,0.0,0.0,75,0.00,,---,0.00,VWS V14.01,2013-09-27 07:56:00,
2013-09-27 03:57:00,61.3,53.3,29.97,West,270,0.0,0.0,75,0.00,,---,0.00,VWS V14.01,2013-09-27 07:57:00,
2013-09-27 03:58:00,61.3,53.3,29.97,West,270,0.0,0.0,75,0.00,,---,0.00,VWS V14.01,2013-09-27 07:58:00,
2013-09-27 03:59:00,61.3,53.3,29.97,West,270,0.0,0.0,75,0.00,,---,0.00,VWS V14.01,2013-09-27 07:59:00,
2013-09-27 04:01:00,61.3,53.3,29.97,West,270,0.0,0.0,75,0.00,,---,0.00,VWS V14.01,2013-09-27 08:01:00,
2013-09-27 04:02:00,61.3,53.3,29.97,West,270,0.0,0.0,75,0.00,,---,0.00,VWS V14.01,2013-09-27 08:02:00,
2013-09-27 04:04:00,61.3,53.3,29.97,West,270,0.0,0.0,75,0.00,,---,0.00,VWS V14.01,2013-09-27 08:04:00,
2013-09-27 04:06:00,61.3,53.3,29.97,West,270,0.0,0.0,75,0.00,,---,0.00,VWS V14.01,2013-09-27 08:06:00,
2013-09-27 04:07:00,61.3,53.3,29.98,West,270,0.0,0.0,75,0.00,,---,0.00,VWS V14.01,2013-09-27 08:07:00,
2013-09-27 04:08:00,61.3,53.3,29.98,West,270,0.0,0.0,75,0.00,,---,0.00,VWS V14.01,2013-09-27 08:08:00,
2013-09-27 04:09:00,61.3,53.3,29.98,West,270,0.0,0.0,75,0.00,,---,0.00,VWS V14.01,2013-09-27 08:09:00,
2013-09-27 04:12:00,60.9,52.9,29.98,West,270,0.0,0.0,75,0.00,,---,0.00,VWS V14.01,2013-09-27 08:12:00,
2013-09-27 04:13:00,60.9,52.9,29.97,West,270,0.0,0.0,75,0.00,,---,0.00,VWS V14.01,2013-09-27 08:13:00,
2013-09-27 04:14:00,60.9,52.9,29.97,West,270,0.0,0.0,75,0.00,,---,0.00,VWS V14.01,2013-09-27 08:14:00,
2013-09-27 04:17:00,60.9,52.9,29.98,West,270,0.0,0.0,75,0.00,,---,0.00,VWS V14.01,2013-09-27 08:17:00,
2013-09-27 04:18:00,60.9,52.9,29.98,West,270,0.0,0.0,75,0.00,,---,0.00,VWS V14.01,2013-09-27 08:18:00,
2013-09-27 04:20:00,60.9,53.3,29.97,West,270,0.0,0.0,76,0.00,,---,0.00,VWS V14.01,2013-09-27 08:20:00,
2013-09-27 04:22:00,60.9,53.3,29.98,West,270,0.0,0.0,76,0.00,,---,0.00,VWS V14.01,2013-09-27 08:22:00,
2013-09-27 04:23:00,60.9,53.3,29.98,West,270,0.0,0.0,76,0.00,,---,0.00,VWS V14.01,2013-09-27 08:23:00,
2013-09-27 04:24:00,60.9,53.3,29.98,West,270,0.0,0.0,76,0.00,,---,0.00,VWS V14.01,2013-09-27 08:24:00,
2013-09-27 04:25:00,60.7,52.7,29.98,West,270,0.0,0.0,75,0.00,,---,0.00,VWS V14.01,2013-09-27 08:25:00,
2013-09-27 04:26:00,60.7,52.7,29.98,West,270,0.0,0.0,75,0.00,,---,0.00,VWS V14.01,2013-09-27 08:26:00,
2013-09-27 04:28:00,60.7,52.7,29.98,West,270,0.0,0.0,75,0.00,,---,0.00,VWS V14.01,2013-09-27 08:28:00,
2013-09-27 04:29:00,60.4,52.5,29.98,West,270,0.0,0.0,75,0.00,,---,0.00,VWS V14.01,2013-09-27 08:29:00,
2013-09-27 04:30:00,60.4,52.5,29.98,West,270,0.0,0.0,75,0.00,,---,0.00,VWS V14.01,2013-09-27 08:30:00,
2013-09-27 04:31:00,60.4,52.5,29.98,West,270,0.0,0.0,75,0.00,,---,0.00,VWS V14.01,2013-09-27 08:31:00,
2013-09-27 04:33:00,60.4,52.5,29.98,West,270,0.0,0.0,75,0.00,,---,0.00,VWS V14.01,2013-09-27 08:33:00,
2013-09-27 04:35:00,60.4,52.5,29.98,West,270,0.0,0.0,75,0.00,,---,0.00,VWS V14.01,2013-09-27 08:35:00,
2013-09-27 04:36:00,60.2,52.3,29.98,West,270,0.0,0.0,75,0.00,,---,0.00,VWS V14.01,2013-09-27 08:36:00,
2013-09-27 04:38:00,60.2,52.3,29.98,West,270,0.0,0.0,75,0.00,,---,0.00,VWS V14.01,2013-09-27 08:38:00,
2013-09-27 04:40:00,60.2,52.3,29.98,West,270,0.0,0.0,75,0.00,,---,0.00,VWS V14.01,2013-09-27 08:40:00,
2013-09-27 04:41:00,60.2,52.3,29.98,West,270,0.0,0.0,75,0.00,,---,0.00,VWS V14.01,2013-09-27 08:41:00,
2013-09-27 04:42:00,60.0,52.1,29.98,West,270,0.0,0.0,75,0.00,,---,0.00,VWS V14.01,2013-09-27 08:42:00,
2013-09-27 04:43:00,60.0,52.1,29.98,West,270,0.0,0.0,75,0.00,,---,0.00,VWS V14.01,2013-09-27 08:43:00,
2013-09-27 04:45:00,60.0,52.1,29.98,West,270,0.0,0.0,75,0.00,,---,0.00,VWS V14.01,2013-09-27 08:45:00,
2013-09-27 04:46:00,60.2,52.6,29.98,West,270,0.0,0.0,76,0.00,,---,0.00,VWS V14.01,2013-09-27 08:46:00,
2013-09-27 04:47:00,60.2,52.6,29.98,West,270,0.0,0.0,76,0.00,,---,0.00,VWS V14.01,2013-09-27 08:47:00,
2013-09-27 04:48:00,60.2,52.6,29.98,West,270,0.0,0.0,76,0.00,,---,0.00,VWS V14.01,2013-09-27 08:48:00,
2013-09-27 04:51:00,60.0,52.4,29.98,West,270,0.0,0.0,76,0.00,,---,0.00,VWS V14.01,2013-09-27 08:51:00,
2013-09-27 04:52:00,60.0,52.4,29.98,West,270,0.0,0.0,76,0.00,,---,0.00,VWS V14.01,2013-09-27 08:52:00,
2013-09-27 04:53:00,60.0,52.4,29.98,West,270,0.0,0.0,76,0.00,,---,0.00,VWS V14.01,2013-09-27 08:53:00,
2013-09-27 04:54:00,60.0,52.4,29.98,West,270,0.0,0.0,76,0.00,,---,0.00,VWS V14.01,2013-09-27 08:54:00,
2013-09-27 04:56:00,60.0,52.4,29.98,West,270,0.0,0.0,76,0.00,,---,0.00,VWS V14.01,2013-09-27 08:56:00,
2013-09-27 04:57:00,60.0,52.4,29.99,West,270,0.0,0.0,76,0.00,,---,0.00,VWS V14.01,2013-09-27 08:57:00,
2013-09-27 04:58:00,60.0,52.4,29.98,West,270,0.0,0.0,76,0.00,,---,0.00,VWS V14.01,2013-09-27 08:58:00,
2013-09-27 05:00:00,60.0,52.4,29.98,West,270,0.0,0.0,76,0.00,,---,0.00,VWS V14.01,2013-09-27 09:00:00,
2013-09-27 05:02:00,60.0,52.4,29.99,West,270,0.0,0.0,76,0.00,,---,0.00,VWS V14.01,2013-09-27 09:02:00,
2013-09-27 05:03:00,60.0,52.4,29.99,West,270,0.0,0.0,76,0.00,,---,0.00,VWS V14.01,2013-09-27 09:03:00,
2013-09-27 05:06:00,60.0,52.4,29.99,West,270,0.0,0.0,76,0.00,,---,0.00,VWS V14.01,2013-09-27 09:06:00,
2013-09-27 05:07:00,59.8,52.2,29.99,West,270,0.0,0.0,76,0.00,,---,0.00,VWS V14.01,2013-09-27 09:07:00,
2013-09-27 05:08:00,59.8,52.2,29.99,West,270,0.0,0.0,76,0.00,,---,0.00,VWS V14.01,2013-09-27 09:08:00,
2013-09-27 05:09:00,59.8,52.2,29.99,West,270,0.0,0.0,76,0.00,,---,0.00,VWS V14.01,2013-09-27 09:09:00,
2013-09-27 05:11:00,59.7,52.1,29.99,West,270,0.0,0.0,76,0.00,,---,0.00,VWS V14.01,2013-09-27 09:11:00,
2013-09-27 05:13:00,59.7,52.1,29.99,West,270,0.0,0.0,76,0.00,,---,0.00,VWS V14.01,2013-09-27 09:13:00,
2013-09-27 05:14:00,59.7,52.1,29.99,West,270,0.0,0.0,76,0.00,,---,0.00,VWS V14.01,2013-09-27 09:14:00,
2013-09-27 05:17:00,59.8,52.2,29.99,West,270,0.0,0.0,76,0.00,,---,0.00,VWS V14.01,2013-09-27 09:17:00,
2013-09-27 05:18:00,59.8,52.2,29.99,West,270,0.0,0.0,76,0.00,,---,0.00,VWS V14.01,2013-09-27 09:18:00,
2013-09-27 05:19:00,59.8,52.2,29.99,West,270,0.0,0.0,76,0.00,,---,0.00,VWS V14.01,2013-09-27 09:19:00,
2013-09-27 05:22:00,59.5,52.3,29.99,West,270,0.0,0.0,77,0.00,,---,0.00,VWS V14.01,2013-09-27 09:22:00,
2013-09-27 05:23:00,59.5,52.3,29.99,West,270,0.0,0.0,77,0.00,,---,0.00,VWS V14.01,2013-09-27 09:23:00,
2013-09-27 05:25:00,59.5,52.3,29.99,West,270,0.0,0.0,77,0.00,,---,0.00,VWS V14.01,2013-09-27 09:25:00,
2013-09-27 05:28:00,59.5,52.3,29.99,West,270,0.0,0.0,77,0.00,,---,0.00,VWS V14.01,2013-09-27 09:28:00,
2013-09-27 05:30:00,59.5,52.3,29.99,West,270,0.0,0.0,77,0.00,,---,0.00,VWS V14.01,2013-09-27 09:30:00,
2013-09-27 05:31:00,59.5,52.3,29.99,West,270,0.0,0.0,77,0.00,,---,0.00,VWS V14.01,2013-09-27 09:31:00,
2013-09-27 05:33:00,59.5,52.6,29.99,West,270,0.0,0.0,78,0.00,,---,0.00,VWS V14.01,2013-09-27 09:33:00,
2013-09-27 05:35:00,59.5,52.6,29.99,West,270,0.0,0.0,78,0.00,,---,0.00,VWS V14.01,2013-09-27 09:35:00,
2013-09-27 05:36:00,59.5,52.6,29.99,West,270,0.0,0.0,78,0.00,,---,0.00,VWS V14.01,2013-09-27 09:36:00,
2013-09-27 05:38:00,59.5,52.6,29.99,West,270,0.0,0.0,78,0.00,,---,0.00,VWS V14.01,2013-09-27 09:38:00,
2013-09-27 05:39:00,59.5,52.6,29.99,West,270,0.0,0.0,78,0.00,,---,0.00,VWS V14.01,2013-09-27 09:39:00,
2013-09-27 05:40:00,59.5,52.6,29.99,West,270,0.0,0.0,78,0.00,,---,0.00,VWS V14.01,2013-09-27 09:40:00,
2013-09-27 05:41:00,59.3,52.5,29.99,West,270,0.0,0.0,78,0.00,,---,0.00,VWS V14.01,2013-09-27 09:41:00,
2013-09-27 05:44:00,59.5,52.6,29.99,West,270,0.0,0.0,78,0.00,,---,0.00,VWS V14.01,2013-09-27 09:44:00,
2013-09-27 05:45:00,59.3,52.5,29.99,West,270,0.0,0.0,78,0.00,,---,0.00,VWS V14.01,2013-09-27 09:45:00,
2013-09-27 05:47:00,59.3,52.5,29.99,West,270,0.0,0.0,78,0.00,,---,0.00,VWS V14.01,2013-09-27 09:47:00,
2013-09-27 05:49:00,59.5,52.6,29.99,West,270,0.0,0.0,78,0.00,,---,0.00,VWS V14.01,2013-09-27 09:49:00,
2013-09-27 05:50:00,59.5,52.6,29.99,West,270,0.0,0.0,78,0.00,,---,0.00,VWS V14.01,2013-09-27 09:50:00,
2013-09-27 05:51:00,59.5,52.6,29.99,West,270,0.0,0.0,78,0.00,,---,0.00,VWS V14.01,2013-09-27 09:51:00,
2013-09-27 05:52:00,59.5,52.6,29.99,West,270,0.0,0.0,78,0.00,,---,0.00,VWS V14.01,2013-09-27 09:52:00,
2013-09-27 05:55:00,59.1,52.3,29.99,West,270,0.0,0.0,78,0.00,,---,0.00,VWS V14.01,2013-09-27 09:55:00,
2013-09-27 05:56:00,59.3,52.5,29.99,West,270,0.0,0.0,78,0.00,,---,0.00,VWS V14.01,2013-09-27 09:56:00,
2013-09-27 05:58:00,59.1,52.3,29.99,West,270,0.0,0.0,78,0.00,,---,0.00,VWS V14.01,2013-09-27 09:58:00,
2013-09-27 06:00:00,59.1,52.3,29.99,West,270,0.0,0.0,78,0.00,,---,0.00,VWS V14.01,2013-09-27 10:00:00,
2013-09-27 06:02:00,59.1,52.3,29.99,West,270,0.0,0.0,78,0.00,,---,0.00,VWS V14.01,2013-09-27 10:02:00,
2013-09-27 06:05:00,59.1,52.3,30.00,West,270,0.0,0.0,78,0.00,,---,0.00,VWS V14.01,2013-09-27 10:05:00,
2013-09-27 06:07:00,58.9,52.1,30.00,West,270,0.0,0.0,78,0.00,,---,0.00,VWS V14.01,2013-09-27 10:07:00,
2013-09-27 06:08:00,58.9,52.1,30.00,West,270,0.0,0.0,78,0.00,,---,0.00,VWS V14.01,2013-09-27 10:08:00,
2013-09-27 06:10:00,58.9,52.1,30.00,West,270,0.0,0.0,78,0.00,,---,0.00,VWS V14.01,2013-09-27 10:10:00,
2013-09-27 06:11:00,58.9,52.1,30.00,West,270,0.0,0.0,78,0.00,,---,0.00,VWS V14.01,2013-09-27 10:11:00,
2013-09-27 06:12:00,59.1,52.3,30.00,West,270,0.0,0.0,78,0.00,,---,0.00,VWS V14.01,2013-09-27 10:12:00,
2013-09-27 06:14:00,58.9,52.1,30.00,West,270,0.0,0.0,78,0.00,,---,0.00,VWS V14.01,2013-09-27 10:14:00,
2013-09-27 06:15:00,58.9,52.1,30.00,West,270,0.0,0.0,78,0.00,,---,0.00,VWS V14.01,2013-09-27 10:15:00,
2013-09-27 06:16:00,58.9,52.1,30.00,West,270,0.0,0.0,78,0.00,,---,0.00,VWS V14.01,2013-09-27 10:16:00,
2013-09-27 06:17:00,58.9,52.1,30.00,West,270,0.0,0.0,78,0.00,,---,0.00,VWS V14.01,2013-09-27 10:17:00,
2013-09-27 06:20:00,58.9,52.1,30.00,West,270,0.0,0.0,78,0.00,,---,0.00,VWS V14.01,2013-09-27 10:20:00,
2013-09-27 06:21:00,58.9,52.1,30.00,West,270,0.0,0.0,78,0.00,,---,0.00,VWS V14.01,2013-09-27 10:21:00,
2013-09-27 06:22:00,58.9,52.1,30.00,West,270,0.0,0.0,78,0.00,,---,0.00,VWS V14.01,2013-09-27 10:22:00,
2013-09-27 06:26:00,58.9,52.1,30.00,West,270,0.0,0.0,78,0.00,,---,0.00,VWS V14.01,2013-09-27 10:26:00,
2013-09-27 06:27:00,58.9,52.1,30.00,West,270,0.0,0.0,78,0.00,,---,0.00,VWS V14.01,2013-09-27 10:27:00,
2013-09-27 06:28:00,58.9,52.1,30.00,West,270,0.0,0.0,78,0.00,,---,0.00,VWS V14.01,2013-09-27 10:28:00,
2013-09-27 06:31:00,58.9,52.1,30.01,West,270,0.0,0.0,78,0.00,,---,0.00,VWS V14.01,2013-09-27 10:31:00,
2013-09-27 06:32:00,58.9,52.1,30.01,West,270,0.0,0.0,78,0.00,,---,0.00,VWS V14.01,2013-09-27 10:32:00,
2013-09-27 06:33:00,58.9,52.1,30.01,West,270,0.0,0.0,78,0.00,,---,0.00,VWS V14.01,2013-09-27 10:33:00,
2013-09-27 06:36:00,58.9,52.1,30.01,West,270,0.0,0.0,78,0.00,,---,0.00,VWS V14.01,2013-09-27 10:36:00,
2013-09-27 06:37:00,58.9,52.1,30.01,West,270,0.0,0.0,78,0.00,,---,0.00,VWS V14.01,2013-09-27 10:37:00,
2013-09-27 06:38:00,58.9,52.1,30.01,West,270,0.0,0.0,78,0.00,,---,0.00,VWS V14.01,2013-09-27 10:38:00,
2013-09-27 06:41:00,58.9,52.1,30.01,West,270,0.0,0.0,78,0.00,,---,0.00,VWS V14.01,2013-09-27 10:41:00,
2013-09-27 06:42:00,58.9,52.1,30.01,West,270,0.0,0.0,78,0.00,,---,0.00,VWS V14.01,2013-09-27 10:42:00,
2013-09-27 06:43:00,58.9,52.1,30.01,West,270,0.0,0.0,78,0.00,,---,0.00,VWS V14.01,2013-09-27 10:43:00,
2013-09-27 06:44:00,58.9,52.1,30.01,West,270,0.0,0.0,78,0.00,,---,0.00,VWS V14.01,2013-09-27 10:44:00,
2013-09-27 06:47:00,58.9,52.4,30.01,West,270,0.0,0.0,79,0.00,,---,0.00,VWS V14.01,2013-09-27 10:47:00,
2013-09-27 06:48:00,58.9,52.4,30.01,West,270,0.0,0.0,79,0.00,,---,0.00,VWS V14.01,2013-09-27 10:48:00,
2013-09-27 06:49:00,58.9,52.4,30.01,West,270,0.0,0.0,79,0.00,,---,0.00,VWS V14.01,2013-09-27 10:49:00,
2013-09-27 06:52:00,58.9,52.4,30.01,West,270,0.0,0.0,79,0.00,,---,0.00,VWS V14.01,2013-09-27 10:52:00,
2013-09-27 06:53:00,58.9,52.4,30.02,West,270,0.0,0.0,79,0.00,,---,0.00,VWS V14.01,2013-09-27 10:53:00,
2013-09-27 06:54:00,58.9,52.4,30.02,West,270,0.0,0.0,79,0.00,,---,0.00,VWS V14.01,2013-09-27 10:54:00,
2013-09-27 06:55:00,58.9,52.4,30.02,West,270,0.0,0.0,79,0.00,,---,0.00,VWS V14.01,2013-09-27 10:55:00,
2013-09-27 06:57:00,58.8,52.3,30.02,West,270,0.0,0.0,79,0.00,,---,0.00,VWS V14.01,2013-09-27 10:57:00,
2013-09-27 06:58:00,58.9,52.4,30.02,West,270,0.0,0.0,79,0.00,,---,0.00,VWS V14.01,2013-09-27 10:58:00,
2013-09-27 07:00:00,58.9,52.4,30.02,West,270,0.0,0.0,79,0.00,,---,0.00,VWS V14.01,2013-09-27 11:00:00,
2013-09-27 07:03:00,58.9,52.4,30.02,West,270,0.0,0.0,79,0.00,,---,0.00,VWS V14.01,2013-09-27 11:03:00,
2013-09-27 07:04:00,58.9,52.4,30.02,West,270,0.0,0.0,79,0.00,,---,0.00,VWS V14.01,2013-09-27 11:04:00,
2013-09-27 07:05:00,58.9,52.8,30.02,West,270,0.0,0.0,80,0.00,,---,0.00,VWS V14.01,2013-09-27 11:05:00,
2013-09-27 07:06:00,58.9,52.8,30.02,West,270,0.0,0.0,80,0.00,,---,0.00,VWS V14.01,2013-09-27 11:06:00,
2013-09-27 07:08:00,58.9,52.8,30.02,West,270,0.0,0.0,80,0.00,,---,0.00,VWS V14.01,2013-09-27 11:08:00,
2013-09-27 07:09:00,58.9,52.8,30.02,West,270,0.0,0.0,80,0.00,,---,0.00,VWS V14.01,2013-09-27 11:09:00,
2013-09-27 07:11:00,59.1,52.9,30.02,West,270,0.0,0.0,80,0.00,,---,0.00,VWS V14.01,2013-09-27 11:11:00,
2013-09-27 07:13:00,60.2,54.4,30.02,West,270,0.0,0.0,81,0.00,,---,0.00,VWS V14.01,2013-09-27 11:13:00,
2013-09-27 07:14:00,60.2,54.4,30.02,West,270,0.0,0.0,81,0.00,,---,0.00,VWS V14.01,2013-09-27 11:14:00,
2013-09-27 07:16:00,61.8,55.6,30.03,West,270,0.0,0.0,80,0.00,,---,0.00,VWS V14.01,2013-09-27 11:16:00,
2013-09-27 07:18:00,63.3,56.3,30.03,West,270,0.0,0.0,78,0.00,,---,0.00,VWS V14.01,2013-09-27 11:18:00,
2013-09-27 07:19:00,63.3,56.3,30.03,West,270,0.0,0.0,78,0.00,,---,0.00,VWS V14.01,2013-09-27 11:19:00,
2013-09-27 07:21:00,63.8,55.7,30.03,West,270,0.0,0.0,75,0.00,,---,0.00,VWS V14.01,2013-09-27 11:21:00,
2013-09-27 07:23:00,64.3,55.5,30.03,West,270,0.0,0.0,73,0.00,,---,0.00,VWS V14.01,2013-09-27 11:23:00,
2013-09-27 07:24:00,64.3,55.5,30.04,West,270,0.0,0.0,73,0.00,,---,0.00,VWS V14.01,2013-09-27 11:24:00,
2013-09-27 07:25:00,64.5,54.5,30.04,West,270,0.0,0.0,70,0.00,,---,0.00,VWS V14.01,2013-09-27 11:25:00,
2013-09-27 07:26:00,64.5,54.5,30.03,West,270,0.0,0.0,70,0.00,,---,0.00,VWS V14.01,2013-09-27 11:26:00,
2013-09-27 07:29:00,65.4,54.2,30.03,West,270,0.0,0.0,67,0.00,,---,0.00,VWS V14.01,2013-09-27 11:29:00,
2013-09-27 07:30:00,65.4,54.2,30.03,West,270,0.0,0.0,67,0.00,,---,0.00,VWS V14.01,2013-09-27 11:30:00,
2013-09-27 07:32:00,66.1,53.6,30.04,West,270,0.0,0.0,64,0.00,,---,0.00,VWS V14.01,2013-09-27 11:32:00,
2013-09-27 07:34:00,66.1,53.6,30.04,West,270,0.0,0.0,64,0.00,,---,0.00,VWS V14.01,2013-09-27 11:34:00,
2013-09-27 07:35:00,66.1,53.6,30.04,West,270,0.0,0.0,64,0.00,,---,0.00,VWS V14.01,2013-09-27 11:35:00,
2013-09-27 07:37:00,66.3,52.9,30.04,West,270,0.0,0.0,62,0.00,,---,0.00,VWS V14.01,2013-09-27 11:37:00,
2013-09-27 07:39:00,66.3,52.5,30.04,West,270,0.0,0.0,61,0.00,,---,0.00,VWS V14.01,2013-09-27 11:39:00,
2013-09-27 07:40:00,66.3,52.5,30.04,West,270,0.0,0.0,61,0.00,,---,0.00,VWS V14.01,2013-09-27 11:40:00,
2013-09-27 07:43:00,66.5,52.2,30.04,West,270,0.0,0.0,60,0.00,,---,0.00,VWS V14.01,2013-09-27 11:43:00,
2013-09-27 07:44:00,66.5,52.2,30.04,West,270,0.0,0.0,60,0.00,,---,0.00,VWS V14.01,2013-09-27 11:44:00,
2013-09-27 07:45:00,66.5,52.2,30.04,West,270,0.0,0.0,60,0.00,,---,0.00,VWS V14.01,2013-09-27 11:45:00,
2013-09-27 07:46:00,66.5,52.2,30.04,West,270,0.0,0.0,60,0.00,,---,0.00,VWS V14.01,2013-09-27 11:46:00,
2013-09-27 07:49:00,66.7,51.9,30.04,West,270,0.0,0.0,59,0.00,,---,0.00,VWS V14.01,2013-09-27 11:49:00,
2013-09-27 07:50:00,66.9,52.1,30.04,West,270,0.0,0.0,59,0.00,,---,0.00,VWS V14.01,2013-09-27 11:50:00,
2013-09-27 07:51:00,66.9,52.1,30.04,West,270,0.0,0.0,59,0.00,,---,0.00,VWS V14.01,2013-09-27 11:51:00,
2013-09-27 07:54:00,66.7,51.0,30.04,West,270,0.0,0.0,57,0.00,,---,0.00,VWS V14.01,2013-09-27 11:54:00,
2013-09-27 07:55:00,66.7,51.5,30.04,West,270,0.0,0.0,58,0.00,,---,0.00,VWS V14.01,2013-09-27 11:55:00,
2013-09-27 07:56:00,66.7,51.5,30.04,West,270,0.0,0.0,58,0.00,,---,0.00,VWS V14.01,2013-09-27 11:56:00,
2013-09-27 08:00:00,66.9,51.7,30.04,West,270,0.0,0.0,58,0.00,,---,0.00,VWS V14.01,2013-09-27 12:00:00,
2013-09-27 08:01:00,66.9,51.7,30.04,West,270,0.0,0.0,58,0.00,,---,0.00,VWS V14.01,2013-09-27 12:01:00,
2013-09-27 08:02:00,66.9,51.7,30.04,West,270,0.0,0.0,58,0.00,,---,0.00,VWS V14.01,2013-09-27 12:02:00,
2013-09-27 08:05:00,66.9,50.7,30.04,West,270,0.0,0.0,56,0.00,,---,0.00,VWS V14.01,2013-09-27 12:05:00,
2013-09-27 08:06:00,66.9,50.7,30.04,West,270,0.0,0.0,56,0.00,,---,0.00,VWS V14.01,2013-09-27 12:06:00,
2013-09-27 08:07:00,66.9,50.7,30.04,West,270,0.0,0.0,56,0.00,,---,0.00,VWS V14.01,2013-09-27 12:07:00,
2013-09-27 08:11:00,66.9,50.7,30.05,West,270,0.0,0.0,56,0.00,,---,0.00,VWS V14.01,2013-09-27 12:11:00,
2013-09-27 08:12:00,66.9,50.7,30.05,West,270,0.0,0.0,56,0.00,,---,0.00,VWS V14.01,2013-09-27 12:12:00,
2013-09-27 08:13:00,66.9,50.7,30.05,West,270,0.0,0.0,56,0.00,,---,0.00,VWS V14.01,2013-09-27 12:13:00,
2013-09-27 08:17:00,66.9,50.7,30.05,West,270,0.0,0.0,56,0.00,,---,0.00,VWS V14.01,2013-09-27 12:17:00,
2013-09-27 08:18:00,67.0,50.8,30.05,West,270,0.0,0.0,56,0.00,,---,0.00,VWS V14.01,2013-09-27 12:18:00,
2013-09-27 08:22:00,67.2,51.0,30.05,West,270,0.0,0.0,56,0.00,,---,0.00,VWS V14.01,2013-09-27 12:22:00,
2013-09-27 08:23:00,67.0,50.8,30.05,West,270,0.0,0.0,56,0.00,,---,0.00,VWS V14.01,2013-09-27 12:23:00,
2013-09-27 08:27:00,67.2,51.0,30.05,West,270,0.0,0.0,56,0.00,,---,0.00,VWS V14.01,2013-09-27 12:27:00,
2013-09-27 08:30:00,67.0,65.5,30.06,West,270,0.0,0.0,95,0.00,,---,0.00,VWS V14.01,2013-09-27 12:30:00,
2013-09-27 08:32:00,67.0,50.8,30.06,West,270,0.0,0.0,56,0.00,,---,0.00,VWS V14.01,2013-09-27 12:32:00,
2013-09-27 08:33:00,67.2,51.0,30.06,West,270,0.0,0.0,56,0.00,,---,0.00,VWS V14.01,2013-09-27 12:33:00,
2013-09-27 08:36:00,67.2,51.0,30.06,West,270,0.0,0.0,56,0.00,,---,0.00,VWS V14.01,2013-09-27 12:36:00,
2013-09-27 08:37:00,67.2,51.0,30.06,West,270,0.0,0.0,56,0.00,,---,0.00,VWS V14.01,2013-09-27 12:37:00,
2013-09-27 08:38:00,67.2,51.0,30.06,West,270,0.0,0.0,56,0.00,,---,0.00,VWS V14.01,2013-09-27 12:38:00,
2013-09-27 08:42:00,67.2,51.5,30.06,West,270,0.0,0.0,57,0.00,,---,0.00,VWS V14.01,2013-09-27 12:42:00,
2013-09-27 08:43:00,67.2,51.5,30.06,West,270,0.0,0.0,57,0.00,,---,0.00,VWS V14.01,2013-09-27 12:43:00,
2013-09-27 08:44:00,67.2,51.5,30.06,West,270,0.0,0.0,57,0.00,,---,0.00,VWS V14.01,2013-09-27 12:44:00,
2013-09-27 08:47:00,67.2,51.5,30.06,West,270,0.0,0.0,57,0.00,,---,0.00,VWS V14.01,2013-09-27 12:47:00,
2013-09-27 08:48:00,67.2,51.5,30.06,West,270,0.0,0.0,57,0.00,,---,0.00,VWS V14.01,2013-09-27 12:48:00,
2013-09-27 08:50:00,66.7,51.0,30.06,West,270,0.0,0.0,57,0.00,,---,0.00,VWS V14.01,2013-09-27 12:50:00,
2013-09-27 08:52:00,66.3,51.1,30.06,West,270,0.0,0.0,58,0.00,,---,0.00,VWS V14.01,2013-09-27 12:52:00,
2013-09-27 08:53:00,65.6,50.9,30.06,West,270,0.0,0.0,59,0.00,,---,0.00,VWS V14.01,2013-09-27 12:53:00,
2013-09-27 08:55:00,65.1,50.9,30.06,West,270,0.0,0.0,60,0.00,,---,0.00,VWS V14.01,2013-09-27 12:55:00,
2013-09-27 08:57:00,65.1,51.3,30.06,West,270,0.0,0.0,61,0.00,,---,0.00,VWS V14.01,2013-09-27 12:57:00,
2013-09-27 08:58:00,64.5,50.8,30.06,West,270,0.0,0.0,61,0.00,,---,0.00,VWS V14.01,2013-09-27 12:58:00,
2013-09-27 08:59:00,64.5,50.8,30.06,West,270,0.0,0.0,61,0.00,,---,0.00,VWS V14.01,2013-09-27 12:59:00,
2013-09-27 09:00:00,64.2,51.4,30.06,West,270,0.0,0.0,63,0.00,,---,0.00,VWS V14.01,2013-09-27 13:00:00,
2013-09-27 09:01:00,64.2,51.4,30.06,West,270,0.0,0.0,63,0.00,,---,0.00,VWS V14.01,2013-09-27 13:01:00,
2013-09-27 09:02:00,63.8,51.4,30.06,West,270,0.0,0.0,64,0.00,,---,0.00,VWS V14.01,2013-09-27 13:02:00,
2013-09-27 09:03:00,63.8,51.4,30.06,West,270,0.0,0.0,64,0.00,,---,0.00,VWS V14.01,2013-09-27 13:03:00,
2013-09-27 09:05:00,63.6,52.0,30.06,West,270,0.0,0.0,66,0.00,,---,0.00,VWS V14.01,2013-09-27 13:05:00,
2013-09-27 09:06:00,63.6,52.0,30.06,West,270,0.0,0.0,66,0.00,,---,0.00,VWS V14.01,2013-09-27 13:06:00,
2013-09-27 09:08:00,63.3,52.2,30.06,West,270,0.0,0.0,67,0.00,,---,0.00,VWS V14.01,2013-09-27 13:08:00,
2013-09-27 09:10:00,63.1,52.4,30.06,West,270,0.0,0.0,68,0.00,,---,0.00,VWS V14.01,2013-09-27 13:10:00,
2013-09-27 09:11:00,63.1,52.4,30.06,West,270,0.0,0.0,68,0.00,,---,0.00,VWS V14.01,2013-09-27 13:11:00,
2013-09-27 09:13:00,63.1,53.2,30.06,West,270,0.0,0.0,70,0.00,,---,0.00,VWS V14.01,2013-09-27 13:13:00,
2013-09-27 09:14:00,63.1,53.2,30.07,West,270,0.0,0.0,70,0.00,,---,0.00,VWS V14.01,2013-09-27 13:14:00,
2013-09-27 09:16:00,63.1,53.2,30.07,West,270,0.0,0.0,70,0.00,,---,0.00,VWS V14.01,2013-09-27 13:16:00,
2013-09-27 09:18:00,63.1,53.6,30.07,West,270,0.0,0.0,71,0.00,,---,0.00,VWS V14.01,2013-09-27 13:18:00,
2013-09-27 09:19:00,63.1,53.6,30.07,West,270,0.0,0.0,71,0.00,,---,0.00,VWS V14.01,2013-09-27 13:19:00,
2013-09-27 09:21:00,63.1,53.6,30.07,West,270,0.0,0.0,71,0.00,,---,0.00,VWS V14.01,2013-09-27 13:21:00,
2013-09-27 09:23:00,63.1,53.6,30.07,West,270,0.0,0.0,71,0.00,,---,0.00,VWS V14.01,2013-09-27 13:23:00,
2013-09-27 09:24:00,63.1,53.6,30.07,West,270,0.0,0.0,71,0.00,,---,0.00,VWS V14.01,2013-09-27 13:24:00,
2013-09-27 09:26:00,63.1,53.6,30.07,West,270,0.0,0.0,71,0.00,,---,0.00,VWS V14.01,2013-09-27 13:26:00,
2013-09-27 09:27:00,63.1,53.6,30.07,West,270,0.0,0.0,71,0.00,,---,0.00,VWS V14.01,2013-09-27 13:27:00,
2013-09-27 09:29:00,63.1,53.9,30.07,West,270,0.0,0.0,72,0.00,,---,0.00,VWS V14.01,2013-09-27 13:29:00,
2013-09-27 09:30:00,63.3,54.1,30.07,West,270,0.0,0.0,72,0.00,,---,0.00,VWS V14.01,2013-09-27 13:30:00,
2013-09-27 09:32:00,63.3,54.1,30.07,West,270,0.0,0.0,72,0.00,,---,0.00,VWS V14.01,2013-09-27 13:32:00,
2013-09-27 09:34:00,63.3,53.8,30.07,West,270,0.0,0.0,71,0.00,,---,0.00,VWS V14.01,2013-09-27 13:34:00,
2013-09-27 09:35:00,63.3,53.8,30.07,West,270,0.0,0.0,71,0.00,,---,0.00,VWS V14.01,2013-09-27 13:35:00,
2013-09-27 09:37:00,63.4,53.8,30.07,SW,225,0.0,0.0,71,0.00,,---,0.00,VWS V14.01,2013-09-27 13:37:00,
2013-09-27 09:38:00,63.4,53.8,30.07,SW,225,0.0,0.0,71,0.00,,---,0.00,VWS V14.01,2013-09-27 13:38:00,
2013-09-27 09:39:00,63.4,53.8,30.07,SW,225,0.0,0.0,71,0.00,,---,0.00,VWS V14.01,2013-09-27 13:39:00,
2013-09-27 09:40:00,63.4,53.8,30.07,SW,225,0.0,0.0,71,0.00,,---,0.00,VWS V14.01,2013-09-27 13:40:00,
2013-09-27 09:42:00,63.4,53.8,30.07,SW,225,0.0,0.0,71,0.00,,---,0.00,VWS V14.01,2013-09-27 13:42:00,
2013-09-27 09:43:00,63.4,53.8,30.07,SW,225,0.0,0.0,71,0.00,,---,0.00,VWS V14.01,2013-09-27 13:43:00,
2013-09-27 09:44:00,63.4,53.8,30.07,SW,225,0.0,0.0,71,0.00,,---,0.00,VWS V14.01,2013-09-27 13:44:00,
2013-09-27 09:46:00,63.8,54.2,30.07,SW,225,0.0,0.0,71,0.00,,---,0.00,VWS V14.01,2013-09-27 13:46:00,
2013-09-27 09:47:00,63.8,54.2,30.07,SW,225,0.0,0.0,71,0.00,,---,0.00,VWS V14.01,2013-09-27 13:47:00,
2013-09-27 09:48:00,63.8,54.2,30.07,SW,225,0.0,0.0,71,0.00,,---,0.00,VWS V14.01,2013-09-27 13:48:00,
2013-09-27 09:49:00,63.8,54.2,30.07,SW,225,0.0,0.0,71,0.00,,---,0.00,VWS V14.01,2013-09-27 13:49:00,
2013-09-27 09:51:00,63.8,54.2,30.07,SW,225,0.0,0.0,71,0.00,,---,0.00,VWS V14.01,2013-09-27 13:51:00,
2013-09-27 09:53:00,63.8,53.8,30.07,SW,225,0.0,0.0,70,0.00,,---,0.00,VWS V14.01,2013-09-27 13:53:00,
2013-09-27 09:54:00,63.8,53.8,30.07,SW,225,0.0,0.0,70,0.00,,---,0.00,VWS V14.01,2013-09-27 13:54:00,
2013-09-27 09:55:00,63.8,53.8,30.07,SW,225,0.0,0.0,70,0.00,,---,0.00,VWS V14.01,2013-09-27 13:55:00,
2013-09-27 09:56:00,63.8,53.8,30.07,SW,225,0.0,0.0,70,0.00,,---,0.00,VWS V14.01,2013-09-27 13:56:00,
2013-09-27 09:58:00,64.0,54.0,30.07,SW,225,0.0,0.0,70,0.00,,---,0.00,VWS V14.01,2013-09-27 13:58:00,
2013-09-27 09:59:00,64.3,54.3,30.07,SW,225,0.0,0.0,70,0.00,,---,0.00,VWS V14.01,2013-09-27 13:59:00,
2013-09-27 10:00:00,64.3,54.3,30.07,SW,225,0.0,0.0,70,0.00,,---,0.00,VWS V14.01,2013-09-27 14:00:00,
2013-09-27 10:01:00,64.2,54.2,30.07,SW,225,0.0,0.0,70,0.00,,---,0.00,VWS V14.01,2013-09-27 14:01:00,
2013-09-27 10:03:00,64.3,54.3,30.07,SW,225,0.0,0.0,70,0.00,,---,0.00,VWS V14.01,2013-09-27 14:03:00,
2013-09-27 10:04:00,64.3,54.3,30.07,SW,225,0.0,0.0,70,0.00,,---,0.00,VWS V14.01,2013-09-27 14:04:00,
2013-09-27 10:05:00,64.3,54.3,30.07,SW,225,0.0,0.0,70,0.00,,---,0.00,VWS V14.01,2013-09-27 14:05:00,
2013-09-27 10:07:00,64.5,54.5,30.07,SW,225,0.0,0.0,70,0.00,,---,0.00,VWS V14.01,2013-09-27 14:07:00,
2013-09-27 10:08:00,64.5,54.9,30.08,SSW,202,0.0,0.0,71,0.00,,---,0.00,VWS V14.01,2013-09-27 14:08:00,
2013-09-27 10:09:00,64.5,54.9,30.08,SSW,202,0.0,0.0,71,0.00,,---,0.00,VWS V14.01,2013-09-27 14:09:00,
2013-09-27 10:10:00,64.5,54.5,30.07,SSW,202,0.0,0.0,70,0.00,,---,0.00,VWS V14.01,2013-09-27 14:10:00,
2013-09-27 10:11:00,64.5,54.5,30.07,SSW,202,0.0,0.0,70,0.00,,---,0.00,VWS V14.01,2013-09-27 14:11:00,
2013-09-27 10:13:00,64.7,54.7,30.07,SSW,202,0.0,0.0,70,0.00,,---,0.00,VWS V14.01,2013-09-27 14:13:00,
2013-09-27 10:15:00,64.9,54.9,30.07,SSW,202,0.0,0.0,70,0.00,,---,0.00,VWS V14.01,2013-09-27 14:15:00,
2013-09-27 10:17:00,65.1,55.1,30.08,SSW,202,0.0,0.0,70,0.00,,---,0.00,VWS V14.01,2013-09-27 14:17:00,
2013-09-27 10:18:00,65.1,55.1,30.08,SSW,202,0.0,0.0,70,0.00,,---,0.00,VWS V14.01,2013-09-27 14:18:00,
2013-09-27 10:20:00,65.1,54.7,30.08,SSW,202,0.0,0.0,69,0.00,,---,0.00,VWS V14.01,2013-09-27 14:20:00,
2013-09-27 10:21:00,65.1,54.7,30.07,SSW,202,0.0,0.0,69,0.00,,---,0.00,VWS V14.01,2013-09-27 14:21:00,
2013-09-27 10:22:00,65.1,54.7,30.07,SSW,202,0.0,0.0,69,0.00,,---,0.00,VWS V14.01,2013-09-27 14:22:00,
2013-09-27 10:24:00,65.2,54.8,30.07,SSW,202,0.0,0.0,69,0.00,,---,0.00,VWS V14.01,2013-09-27 14:24:00,
2013-09-27 10:25:00,66.0,55.5,30.08,SSW,202,0.0,0.0,69,0.00,,---,0.00,VWS V14.01,2013-09-27 14:25:00,
2013-09-27 10:26:00,66.0,55.5,30.07,SSW,202,0.0,0.0,69,0.00,,---,0.00,VWS V14.01,2013-09-27 14:26:00,
2013-09-27 10:27:00,66.0,55.5,30.07,SSW,202,0.0,0.0,69,0.00,,---,0.00,VWS V14.01,2013-09-27 14:27:00,
2013-09-27 10:29:00,66.9,56.0,30.08,SSW,202,0.0,0.0,68,0.00,,---,0.00,VWS V14.01,2013-09-27 14:29:00,
2013-09-27 10:30:00,66.9,56.0,30.08,SSW,202,0.0,0.0,68,0.00,,---,0.00,VWS V14.01,2013-09-27 14:30:00,
2013-09-27 10:32:00,67.2,55.5,30.08,SSW,202,0.0,0.0,66,0.00,,---,0.00,VWS V14.01,2013-09-27 14:32:00,
2013-09-27 10:35:00,68.1,55.9,30.08,SSW,202,0.0,0.0,65,0.00,,---,0.00,VWS V14.01,2013-09-27 14:35:00,
2013-09-27 10:36:00,68.7,56.0,30.08,SSW,202,0.0,0.0,64,0.00,,---,0.00,VWS V14.01,2013-09-27 14:36:00,
2013-09-27 10:37:00,68.7,56.0,30.08,SSW,202,0.0,0.0,64,0.00,,---,0.00,VWS V14.01,2013-09-27 14:37:00,
2013-09-27 10:38:00,68.7,56.0,30.08,SSW,202,0.0,0.0,64,0.00,,---,0.00,VWS V14.01,2013-09-27 14:38:00,
2013-09-27 10:40:00,69.0,54.5,30.08,SSW,202,0.0,0.0,60,0.00,,---,0.00,VWS V14.01,2013-09-27 14:40:00,
2013-09-27 10:41:00,69.0,54.5,30.08,SSW,202,0.0,0.0,60,0.00,,---,0.00,VWS V14.01,2013-09-27 14:41:00,
2013-09-27 10:42:00,69.0,54.5,30.08,SSW,202,0.0,0.0,60,0.00,,---,0.00,VWS V14.01,2013-09-27 14:42:00,
2013-09-27 10:44:00,69.4,54.5,30.08,SSW,202,0.0,0.0,59,0.00,,---,0.00,VWS V14.01,2013-09-27 14:44:00,
2013-09-27 10:45:00,69.4,54.5,30.08,SSW,202,0.0,0.0,59,0.00,,---,0.00,VWS V14.01,2013-09-27 14:45:00,
2013-09-27 10:47:00,68.8,53.4,30.08,SSW,202,0.0,0.0,58,0.00,,---,0.00,VWS V14.01,2013-09-27 14:47:00,
2013-09-27 10:49:00,69.2,53.8,30.08,South,180,0.0,0.0,58,0.00,,---,0.00,VWS V14.01,2013-09-27 14:49:00,
2013-09-27 10:52:00,69.0,53.6,30.08,South,180,0.0,0.0,58,0.00,,---,0.00,VWS V14.01,2013-09-27 14:52:00,
2013-09-27 10:55:00,68.5,52.2,30.08,South,180,0.0,0.0,56,0.00,,---,0.00,VWS V14.01,2013-09-27 14:55:00,
2013-09-27 10:57:00,68.5,53.2,30.08,South,180,0.0,0.0,58,0.00,,---,0.00,VWS V14.01,2013-09-27 14:57:00,
2013-09-27 10:58:00,68.5,53.2,30.08,South,180,0.0,0.0,58,0.00,,---,0.00,VWS V14.01,2013-09-27 14:58:00,
2013-09-27 10:59:00,69.0,54.1,30.08,South,180,0.0,0.0,59,0.00,,---,0.00,VWS V14.01,2013-09-27 14:59:00,
2013-09-27 11:00:00,69.0,53.6,30.08,South,180,0.0,0.0,58,0.00,,---,0.00,VWS V14.01,2013-09-27 15:00:00,
2013-09-27 11:02:00,69.2,53.8,30.08,South,180,0.0,0.0,58,0.00,,---,0.00,VWS V14.01,2013-09-27 15:02:00,
2013-09-27 11:03:00,69.2,53.8,30.08,South,180,0.0,0.0,58,0.00,,---,0.00,VWS V14.01,2013-09-27 15:03:00,
2013-09-27 11:04:00,69.2,53.8,30.08,SSE,158,0.0,0.0,58,0.00,,---,0.00,VWS V14.01,2013-09-27 15:04:00,
2013-09-27 11:05:00,69.2,53.8,30.08,SSE,158,0.0,0.0,58,0.00,,---,0.00,VWS V14.01,2013-09-27 15:05:00,
2013-09-27 11:07:00,68.1,51.3,30.09,SSE,158,0.0,0.0,55,0.00,,---,0.00,VWS V14.01,2013-09-27 15:07:00,
2013-09-27 11:08:00,68.1,51.3,30.09,SSE,158,0.0,0.0,55,0.00,,---,0.00,VWS V14.01,2013-09-27 15:08:00,
2013-09-27 11:09:00,68.1,51.3,30.09,SSE,158,0.0,0.0,55,0.00,,---,0.00,VWS V14.01,2013-09-27 15:09:00,
2013-09-27 11:11:00,68.5,53.2,30.09,SSE,158,0.0,0.0,58,0.00,,---,0.00,VWS V14.01,2013-09-27 15:11:00,
2013-09-27 11:12:00,68.5,52.7,30.08,SSE,158,0.0,0.0,57,0.00,,---,0.00,VWS V14.01,2013-09-27 15:12:00,
2013-09-27 11:14:00,68.5,52.7,30.08,SSE,158,0.0,0.0,57,0.00,,---,0.00,VWS V14.01,2013-09-27 15:14:00,
2013-09-27 11:17:00,68.7,53.3,30.08,SSE,158,0.0,0.0,58,0.00,,---,0.00,VWS V14.01,2013-09-27 15:17:00,
2013-09-27 11:18:00,68.7,53.3,30.08,SSE,158,0.0,0.0,58,0.00,,---,0.00,VWS V14.01,2013-09-27 15:18:00,
2013-09-27 11:19:00,69.2,53.3,30.08,SSE,158,0.0,0.0,57,0.00,,---,0.00,VWS V14.01,2013-09-27 15:19:00,
2013-09-27 11:20:00,69.2,53.3,30.08,SSE,158,0.0,0.0,57,0.00,,---,0.00,VWS V14.01,2013-09-27 15:20:00,
2013-09-27 11:23:00,69.4,53.0,30.08,SSE,158,0.0,0.0,56,0.00,,---,0.00,VWS V14.01,2013-09-27 15:23:00,
2013-09-27 11:24:00,69.2,52.8,30.08,SSE,158,0.0,0.0,56,0.00,,---,0.00,VWS V14.01,2013-09-27 15:24:00,
2013-09-27 11:25:00,69.2,52.8,30.08,SSE,158,0.0,0.0,56,0.00,,---,0.00,VWS V14.01,2013-09-27 15:25:00,
2013-09-27 11:28:00,69.0,52.7,30.08,SSE,158,0.0,0.0,56,0.00,,---,0.00,VWS V14.01,2013-09-27 15:28:00,
2013-09-27 11:29:00,69.2,52.8,30.08,SSE,158,0.0,0.0,56,0.00,,---,0.00,VWS V14.01,2013-09-27 15:29:00,
2013-09-27 11:30:00,69.2,52.8,30.08,SSE,158,0.0,0.0,56,0.00,,---,0.00,VWS V14.01,2013-09-27 15:30:00,
2013-09-27 11:33:00,68.8,52.5,30.08,SSE,158,0.0,0.0,56,0.00,,---,0.00,VWS V14.01,2013-09-27 15:33:00,
2013-09-27 11:34:00,68.5,51.7,30.08,SSE,158,0.0,0.0,55,0.00,,---,0.00,VWS V14.01,2013-09-27 15:34:00,
2013-09-27 11:35:00,68.5,51.7,30.08,SSE,158,0.0,0.0,55,0.00,,---,0.00,VWS V14.01,2013-09-27 15:35:00,
2013-09-27 11:39:00,69.2,52.8,30.09,SSE,158,0.0,0.0,56,0.00,,---,0.00,VWS V14.01,2013-09-27 15:39:00,
2013-09-27 11:40:00,69.2,53.3,30.09,SSE,158,0.0,0.0,57,0.00,,---,0.00,VWS V14.01,2013-09-27 15:40:00,
2013-09-27 11:44:00,69.7,53.8,30.09,SSE,158,0.0,0.0,57,0.00,,---,0.00,VWS V14.01,2013-09-27 15:44:00,
2013-09-27 11:45:00,69.7,53.8,30.09,SSE,158,0.0,0.0,57,0.00,,---,0.00,VWS V14.01,2013-09-27 15:45:00,
2013-09-27 11:46:00,69.7,53.8,30.09,SSE,158,0.0,0.0,57,0.00,,---,0.00,VWS V14.01,2013-09-27 15:46:00,
2013-09-27 11:50:00,69.9,53.0,30.08,SSE,158,0.0,0.0,55,0.00,,---,0.00,VWS V14.01,2013-09-27 15:50:00,
2013-09-27 11:51:00,69.4,52.0,30.08,SSE,158,0.0,0.0,54,0.00,,---,0.00,VWS V14.01,2013-09-27 15:51:00,
2013-09-27 11:52:00,69.4,52.0,30.08,SSE,158,0.0,0.0,54,0.00,,---,0.00,VWS V14.01,2013-09-27 15:52:00,
2013-09-27 11:55:00,69.7,53.3,30.08,SSE,158,0.0,0.0,56,0.00,,---,0.00,VWS V14.01,2013-09-27 15:55:00,
2013-09-27 11:56:00,69.7,53.3,30.08,SSE,158,0.0,0.0,56,0.00,,---,0.00,VWS V14.01,2013-09-27 15:56:00,
2013-09-27 11:58:00,69.9,53.5,30.08,SSE,158,0.0,0.0,56,0.00,,---,0.00,VWS V14.01,2013-09-27 15:58:00,
2013-09-27 12:00:00,70.5,54.1,30.09,SSE,158,0.0,0.0,56,0.00,,---,0.00,VWS V14.01,2013-09-27 16:00:00,
2013-09-27 12:01:00,70.5,54.1,30.09,SSE,158,0.0,0.0,56,0.00,,---,0.00,VWS V14.01,2013-09-27 16:01:00,
2013-09-27 12:02:00,70.5,54.1,30.08,SSE,158,0.0,0.0,56,0.00,,---,0.00,VWS V14.01,2013-09-27 16:02:00,
2013-09-27 12:03:00,70.6,54.2,30.09,SSE,158,0.0,0.0,56,0.00,,---,0.00,VWS V14.01,2013-09-27 16:03:00,
2013-09-27 12:06:00,71.0,53.5,30.08,SSE,158,0.0,0.0,54,0.00,,---,0.00,VWS V14.01,2013-09-27 16:06:00,
2013-09-27 12:07:00,71.0,53.5,30.08,SSE,158,0.0,0.0,54,0.00,,---,0.00,VWS V14.01,2013-09-27 16:07:00,
2013-09-27 12:08:00,71.0,53.5,30.08,SSE,158,0.0,0.0,54,0.00,,---,0.00,VWS V14.01,2013-09-27 16:08:00,
2013-09-27 12:11:00,71.0,53.0,30.08,SSE,158,0.0,0.0,53,0.00,,---,0.00,VWS V14.01,2013-09-27 16:11:00,
2013-09-27 12:12:00,71.0,53.0,30.08,SSE,158,0.0,0.0,53,0.00,,---,0.00,VWS V14.01,2013-09-27 16:12:00,
2013-09-27 12:14:00,71.0,53.0,30.08,SSE,158,0.0,0.0,53,0.00,,---,0.00,VWS V14.01,2013-09-27 16:14:00,
2013-09-27 12:16:00,71.0,53.0,30.07,SSE,158,0.0,0.0,53,0.00,,---,0.00,VWS V14.01,2013-09-27 16:16:00,
2013-09-27 12:17:00,71.0,53.0,30.07,SSE,158,0.0,0.0,53,0.00,,---,0.00,VWS V14.01,2013-09-27 16:17:00,
2013-09-27 12:18:00,70.8,52.8,30.08,SSE,158,0.0,0.0,53,0.00,,---,0.00,VWS V14.01,2013-09-27 16:18:00,
2013-09-27 12:19:00,70.8,52.8,30.07,SSE,158,0.0,0.0,53,0.00,,---,0.00,VWS V14.01,2013-09-27 16:19:00,
2013-09-27 12:21:00,70.8,52.8,30.07,SSE,158,0.0,0.0,53,0.00,,---,0.00,VWS V14.01,2013-09-27 16:21:00,
2013-09-27 12:22:00,70.8,52.8,30.07,SSE,158,0.0,0.0,53,0.00,,---,0.00,VWS V14.01,2013-09-27 16:22:00,
2013-09-27 12:23:00,71.2,53.7,30.07,SSE,158,0.0,0.0,54,0.00,,---,0.00,VWS V14.01,2013-09-27 16:23:00,
2013-09-27 12:24:00,71.5,53.5,30.07,SSE,158,0.0,0.0,53,0.00,,---,0.00,VWS V14.01,2013-09-27 16:24:00,
2013-09-27 12:27:00,71.5,53.5,30.07,SSE,158,0.0,0.0,53,0.00,,---,0.00,VWS V14.01,2013-09-27 16:27:00,
2013-09-27 12:28:00,71.5,53.5,30.07,SSE,158,0.0,0.0,53,0.00,,---,0.00,VWS V14.01,2013-09-27 16:28:00,
2013-09-27 12:30:00,71.4,52.9,30.07,SSE,158,0.0,0.0,52,0.00,,---,0.00,VWS V14.01,2013-09-27 16:30:00,
2013-09-27 12:32:00,71.5,53.5,30.07,SSE,158,0.0,0.0,53,0.00,,---,0.00,VWS V14.01,2013-09-27 16:32:00,
2013-09-27 12:33:00,71.5,53.5,30.07,SSE,158,0.0,0.0,53,0.00,,---,0.00,VWS V14.01,2013-09-27 16:33:00,
2013-09-27 12:34:00,71.5,53.5,30.07,SSE,158,0.0,0.0,53,0.00,,---,0.00,VWS V14.01,2013-09-27 16:34:00,
2013-09-27 12:35:00,71.5,53.5,30.07,SSE,158,0.0,0.0,53,0.00,,---,0.00,VWS V14.01,2013-09-27 16:35:00,
2013-09-27 12:37:00,71.5,53.5,30.07,SSE,158,0.0,0.0,53,0.00,,---,0.00,VWS V14.01,2013-09-27 16:37:00,
2013-09-27 12:39:00,72.3,53.2,30.08,SW,225,0.0,0.0,51,0.00,,---,0.00,VWS V14.01,2013-09-27 16:39:00,
2013-09-27 12:40:00,72.3,53.2,30.08,SW,225,0.0,0.0,51,0.00,,---,0.00,VWS V14.01,2013-09-27 16:40:00,
2013-09-27 12:42:00,72.6,53.5,30.08,WSW,248,0.0,0.0,51,0.00,,---,0.00,VWS V14.01,2013-09-27 16:42:00,
2013-09-27 12:44:00,72.6,53.5,30.07,WSW,248,0.0,0.0,51,0.00,,---,0.00,VWS V14.01,2013-09-27 16:44:00,
2013-09-27 12:45:00,72.6,53.5,30.07,WSW,248,0.0,0.0,51,0.00,,---,0.00,VWS V14.01,2013-09-27 16:45:00,
2013-09-27 12:46:00,72.6,53.5,30.07,WSW,248,0.0,0.0,51,0.00,,---,0.00,VWS V14.01,2013-09-27 16:46:00,
2013-09-27 12:47:00,72.6,53.5,30.07,WSW,248,0.0,0.0,51,0.00,,---,0.00,VWS V14.01,2013-09-27 16:47:00,
2013-09-27 12:48:00,73.0,53.8,30.07,WSW,248,0.0,0.0,51,0.00,,---,0.00,VWS V14.01,2013-09-27 16:48:00,
2013-09-27 12:49:00,73.0,53.8,30.07,WSW,248,0.0,0.0,51,0.00,,---,0.00,VWS V14.01,2013-09-27 16:49:00,
2013-09-27 12:50:00,73.3,54.1,30.07,WSW,248,0.0,0.0,51,0.00,,---,0.00,VWS V14.01,2013-09-27 16:50:00,
2013-09-27 12:51:00,73.3,54.1,30.07,WSW,248,0.0,0.0,51,0.00,,---,0.00,VWS V14.01,2013-09-27 16:51:00,
2013-09-27 12:52:00,73.5,53.7,30.07,WSW,248,0.0,0.0,50,0.00,,---,0.00,VWS V14.01,2013-09-27 16:52:00,
2013-09-27 12:53:00,73.5,53.7,30.07,WSW,248,0.0,0.0,50,0.00,,---,0.00,VWS V14.01,2013-09-27 16:53:00,
2013-09-27 12:54:00,73.5,53.7,30.07,WSW,248,0.0,0.0,50,0.00,,---,0.00,VWS V14.01,2013-09-27 16:54:00,
2013-09-27 12:56:00,73.5,53.7,30.07,WSW,248,0.0,0.0,50,0.00,,---,0.00,VWS V14.01,2013-09-27 16:56:00,
2013-09-27 12:57:00,73.5,53.2,30.07,WSW,248,0.0,0.0,49,0.00,,---,0.00,VWS V14.01,2013-09-27 16:57:00,
2013-09-27 12:59:00,73.5,53.2,30.07,WSW,248,0.0,0.0,49,0.00,,---,0.00,VWS V14.01,2013-09-27 16:59:00,
2013-09-27 13:01:00,73.9,53.6,30.07,SW,225,0.0,0.0,49,0.00,,---,0.00,VWS V14.01,2013-09-27 17:01:00,
2013-09-27 13:02:00,73.9,53.6,30.07,SW,225,0.0,0.0,49,0.00,,---,0.00,VWS V14.01,2013-09-27 17:02:00,
2013-09-27 13:03:00,73.9,53.6,30.07,SW,225,0.0,0.0,49,0.00,,---,0.00,VWS V14.01,2013-09-27 17:03:00,
2013-09-27 13:04:00,73.5,52.6,30.07,SW,225,0.0,0.0,48,0.00,,---,0.00,VWS V14.01,2013-09-27 17:04:00,
2013-09-27 13:06:00,73.3,51.9,30.07,SW,225,0.0,0.0,47,0.00,,---,0.00,VWS V14.01,2013-09-27 17:06:00,
2013-09-27 13:07:00,73.5,52.6,30.07,SW,225,0.0,0.0,48,0.00,,---,0.00,VWS V14.01,2013-09-27 17:07:00,
2013-09-27 13:08:00,73.5,52.6,30.07,SW,225,0.0,0.0,48,0.00,,---,0.00,VWS V14.01,2013-09-27 17:08:00,
2013-09-27 13:09:00,73.7,52.8,30.06,SW,225,0.0,0.0,48,0.00,,---,0.00,VWS V14.01,2013-09-27 17:09:00,
2013-09-27 13:10:00,73.7,52.8,30.06,SW,225,0.0,0.0,48,0.00,,---,0.00,VWS V14.01,2013-09-27 17:10:00,
2013-09-27 13:11:00,74.1,53.2,30.07,SW,225,0.0,0.0,48,0.00,,---,0.00,VWS V14.01,2013-09-27 17:11:00,
2013-09-27 13:13:00,74.1,53.2,30.07,SW,225,0.0,0.0,48,0.00,,---,0.00,VWS V14.01,2013-09-27 17:13:00,
2013-09-27 13:15:00,74.1,52.6,30.06,SW,225,0.0,0.0,47,0.00,,---,0.00,VWS V14.01,2013-09-27 17:15:00,
2013-09-27 13:16:00,74.4,52.9,30.06,SSW,202,0.0,0.0,47,0.00,,---,0.00,VWS V14.01,2013-09-27 17:16:00,
2013-09-27 13:18:00,74.4,52.9,30.06,SSW,202,0.0,0.0,47,0.00,,---,0.00,VWS V14.01,2013-09-27 17:18:00,
2013-09-27 13:19:00,74.4,52.9,30.06,SSW,202,0.0,0.0,47,0.00,,---,0.00,VWS V14.01,2013-09-27 17:19:00,
2013-09-27 13:20:00,74.4,52.9,30.06,SSW,202,0.0,0.0,47,0.00,,---,0.00,VWS V14.01,2013-09-27 17:20:00,
2013-09-27 13:21:00,74.4,52.9,30.06,SSW,202,0.0,0.0,47,0.00,,---,0.00,VWS V14.01,2013-09-27 17:21:00,
2013-09-27 13:22:00,74.4,52.9,30.06,SSW,202,0.0,0.0,47,0.00,,---,0.00,VWS V14.01,2013-09-27 17:22:00,
2013-09-27 13:24:00,74.4,52.9,30.06,SSW,202,0.0,0.0,47,0.00,,---,0.00,VWS V14.01,2013-09-27 17:24:00,
2013-09-27 13:25:00,74.6,53.1,30.05,SSW,202,0.0,0.0,47,0.00,,---,0.00,VWS V14.01,2013-09-27 17:25:00,
2013-09-27 13:26:00,74.6,53.1,30.06,SSW,202,0.0,0.0,47,0.00,,---,0.00,VWS V14.01,2013-09-27 17:26:00,
2013-09-27 13:27:00,74.6,53.1,30.05,SSW,202,0.0,0.0,47,0.00,,---,0.00,VWS V14.01,2013-09-27 17:27:00,
2013-09-27 13:29:00,74.6,53.1,30.05,SSW,202,0.0,0.0,47,0.00,,---,0.00,VWS V14.01,2013-09-27 17:29:00,
2013-09-27 13:30:00,74.6,51.9,30.05,SSW,202,0.0,0.0,45,0.00,,---,0.00,VWS V14.01,2013-09-27 17:30:00,
2013-09-27 13:31:00,74.6,51.9,30.05,WSW,248,0.0,0.0,45,0.00,,---,0.00,VWS V14.01,2013-09-27 17:31:00,
2013-09-27 13:32:00,74.6,51.9,30.05,WSW,248,0.0,0.0,45,0.00,,---,0.00,VWS V14.01,2013-09-27 17:32:00,
2013-09-27 13:34:00,74.6,51.9,30.05,WSW,248,0.0,0.0,45,0.00,,---,0.00,VWS V14.01,2013-09-27 17:34:00,
2013-09-27 13:35:00,75.3,53.1,30.05,SW,225,0.0,0.0,46,0.00,,---,0.00,VWS V14.01,2013-09-27 17:35:00,
2013-09-27 13:36:00,75.3,53.1,30.05,SW,225,0.0,0.0,46,0.00,,---,0.00,VWS V14.01,2013-09-27 17:36:00,
2013-09-27 13:37:00,75.3,52.5,30.05,WSW,248,0.0,0.0,45,0.00,,---,0.00,VWS V14.01,2013-09-27 17:37:00,
2013-09-27 13:38:00,75.3,52.5,30.05,WSW,248,0.0,0.0,45,0.00,,---,0.00,VWS V14.01,2013-09-27 17:38:00,
2013-09-27 13:39:00,75.7,52.9,30.05,WSW,248,0.0,0.0,45,0.00,,---,0.00,VWS V14.01,2013-09-27 17:39:00,
2013-09-27 13:41:00,75.7,52.9,30.04,WSW,248,0.0,0.0,45,0.00,,---,0.00,VWS V14.01,2013-09-27 17:41:00,
2013-09-27 13:42:00,75.7,52.9,30.04,WSW,248,0.0,0.0,45,0.00,,---,0.00,VWS V14.01,2013-09-27 17:42:00,
2013-09-27 13:43:00,75.9,53.1,30.04,WSW,248,0.0,0.0,45,0.00,,---,0.00,VWS V14.01,2013-09-27 17:43:00,
2013-09-27 13:44:00,75.9,53.1,30.04,WSW,248,0.0,0.0,45,0.00,,---,0.00,VWS V14.01,2013-09-27 17:44:00,
2013-09-27 13:47:00,75.9,52.5,30.04,NW,315,0.0,0.0,44,0.00,,---,0.00,VWS V14.01,2013-09-27 17:47:00,
2013-09-27 13:48:00,75.9,52.5,30.04,NW,315,0.0,0.0,44,0.00,,---,0.00,VWS V14.01,2013-09-27 17:48:00,
2013-09-27 13:49:00,75.9,52.5,30.04,NW,315,0.0,0.0,44,0.00,,---,0.00,VWS V14.01,2013-09-27 17:49:00,
2013-09-27 13:53:00,76.0,51.3,30.04,NW,315,0.0,0.0,42,0.00,,---,0.00,VWS V14.01,2013-09-27 17:53:00,
2013-09-27 13:54:00,76.2,52.1,30.04,NW,315,0.0,0.0,43,0.00,,---,0.00,VWS V14.01,2013-09-27 17:54:00,
2013-09-27 13:55:00,76.2,52.1,30.04,NW,315,0.0,0.0,43,0.00,,---,0.00,VWS V14.01,2013-09-27 17:55:00,
2013-09-27 13:58:00,76.9,52.7,30.04,North,0,0.0,0.0,43,0.00,,---,0.00,VWS V14.01,2013-09-27 17:58:00,
2013-09-27 13:59:00,76.9,52.7,30.04,North,0,0.0,0.0,43,0.00,,---,0.00,VWS V14.01,2013-09-27 17:59:00,
2013-09-27 14:00:00,76.9,52.7,30.04,North,0,0.0,0.0,43,0.00,,---,0.00,VWS V14.01,2013-09-27 18:00:00,
2013-09-27 14:03:00,77.1,52.3,30.04,NW,315,0.0,0.0,42,0.00,,---,0.00,VWS V14.01,2013-09-27 18:03:00,
2013-09-27 14:04:00,77.1,52.3,30.04,NW,315,0.0,0.0,42,0.00,,---,0.00,VWS V14.01,2013-09-27 18:04:00,
2013-09-27 14:05:00,77.1,52.3,30.04,NW,315,0.0,0.0,42,0.00,,---,0.00,VWS V14.01,2013-09-27 18:05:00,
2013-09-27 14:08:00,77.1,50.9,30.04,NW,315,0.0,0.0,40,0.00,,---,0.00,VWS V14.01,2013-09-27 18:08:00,
2013-09-27 14:09:00,76.9,51.4,30.04,NW,315,0.0,0.0,41,0.00,,---,0.00,VWS V14.01,2013-09-27 18:09:00,
2013-09-27 14:10:00,76.9,51.4,30.04,NW,315,0.0,0.0,41,0.00,,---,0.00,VWS V14.01,2013-09-27 18:10:00,
2013-09-27 14:11:00,76.9,51.4,30.04,NW,315,0.0,0.0,41,0.00,,---,0.00,VWS V14.01,2013-09-27 18:11:00,
2013-09-27 14:12:00,77.1,51.6,30.04,NW,315,0.0,0.0,41,0.00,,---,0.00,VWS V14.01,2013-09-27 18:12:00,
2013-09-27 14:13:00,77.1,51.6,30.04,WNW,292,0.0,0.0,41,0.00,,---,0.00,VWS V14.01,2013-09-27 18:13:00,
2013-09-27 14:15:00,77.1,51.6,30.04,WNW,292,0.0,0.0,41,0.00,,---,0.00,VWS V14.01,2013-09-27 18:15:00,
2013-09-27 14:16:00,77.5,52.0,30.04,WNW,292,0.0,0.0,41,0.00,,---,0.00,VWS V14.01,2013-09-27 18:16:00,
2013-09-27 14:18:00,77.5,51.3,30.04,SW,225,0.0,0.0,40,0.00,,---,0.00,VWS V14.01,2013-09-27 18:18:00,
2013-09-27 14:19:00,77.5,51.3,30.04,SW,225,0.0,0.0,40,0.00,,---,0.00,VWS V14.01,2013-09-27 18:19:00,
2013-09-27 14:20:00,77.5,51.3,30.03,SW,225,0.0,0.0,40,0.00,,---,0.00,VWS V14.01,2013-09-27 18:20:00,
2013-09-27 14:21:00,77.5,51.3,30.04,SSW,202,0.0,0.0,40,0.00,,---,0.00,VWS V14.01,2013-09-27 18:21:00,
2013-09-27 14:23:00,77.1,51.6,30.03,SSW,202,0.0,0.0,41,0.00,,---,0.00,VWS V14.01,2013-09-27 18:23:00,
2013-09-27 14:24:00,77.1,51.6,30.04,SSW,202,0.0,0.0,41,0.00,,---,0.00,VWS V14.01,2013-09-27 18:24:00,
2013-09-27 14:25:00,77.1,51.6,30.04,SSW,202,0.0,0.0,41,0.00,,---,0.00,VWS V14.01,2013-09-27 18:25:00,
2013-09-27 14:27:00,77.5,53.3,30.04,SSW,202,0.0,0.0,43,0.00,,---,0.00,VWS V14.01,2013-09-27 18:27:00,
2013-09-27 14:29:00,77.3,52.5,30.04,SSW,202,0.0,0.0,42,0.00,,---,0.00,VWS V14.01,2013-09-27 18:29:00,
2013-09-27 14:30:00,77.3,52.5,30.04,SSW,202,0.0,0.0,42,0.00,,---,0.00,VWS V14.01,2013-09-27 18:30:00,
2013-09-27 14:31:00,77.1,52.3,30.03,SSW,202,0.0,0.0,42,0.00,,---,0.00,VWS V14.01,2013-09-27 18:31:00,
2013-09-27 14:33:00,76.8,52.0,30.03,SSW,202,0.0,0.0,42,0.00,,---,0.00,VWS V14.01,2013-09-27 18:33:00,
2013-09-27 14:34:00,76.8,52.0,30.03,SSW,202,0.0,0.0,42,0.00,,---,0.00,VWS V14.01,2013-09-27 18:34:00,
2013-09-27 14:35:00,76.4,52.3,30.03,SSW,202,0.0,0.0,43,0.00,,---,0.00,VWS V14.01,2013-09-27 18:35:00,
2013-09-27 14:36:00,76.4,52.3,30.03,SSW,202,0.0,0.0,43,0.00,,---,0.00,VWS V14.01,2013-09-27 18:36:00,
2013-09-27 14:38:00,76.6,52.5,30.03,SSW,202,0.0,0.0,43,0.00,,---,0.00,VWS V14.01,2013-09-27 18:38:00,
2013-09-27 14:39:00,77.1,52.3,30.03,SSW,202,0.0,0.0,42,0.00,,---,0.00,VWS V14.01,2013-09-27 18:39:00,
2013-09-27 14:41:00,77.1,52.3,30.03,SSW,202,0.0,0.0,42,0.00,,---,0.00,VWS V14.01,2013-09-27 18:41:00,
2013-09-27 14:43:00,77.1,52.3,30.03,SSW,202,0.0,0.0,42,0.00,,---,0.00,VWS V14.01,2013-09-27 18:43:00,
2013-09-27 14:46:00,77.5,52.0,30.03,SSW,202,0.0,0.0,41,0.00,,---,0.00,VWS V14.01,2013-09-27 18:46:00,
2013-09-27 14:47:00,77.5,52.0,30.03,SSW,202,0.0,0.0,41,0.00,,---,0.00,VWS V14.01,2013-09-27 18:47:00,
2013-09-27 14:48:00,77.5,52.0,30.02,SSW,202,0.0,0.0,41,0.00,,---,0.00,VWS V14.01,2013-09-27 18:48:00,
2013-09-27 14:51:00,78.0,51.8,30.02,SSW,202,0.0,0.0,40,0.00,,---,0.00,VWS V14.01,2013-09-27 18:51:00,
2013-09-27 14:52:00,78.0,51.8,30.02,SSW,202,0.0,0.0,40,0.00,,---,0.00,VWS V14.01,2013-09-27 18:52:00,
2013-09-27 14:54:00,78.0,51.8,30.02,SSW,202,0.0,0.0,40,0.00,,---,0.00,VWS V14.01,2013-09-27 18:54:00,
2013-09-27 14:56:00,78.2,51.2,30.02,SSW,202,0.0,0.0,39,0.00,,---,0.00,VWS V14.01,2013-09-27 18:56:00,
2013-09-27 14:57:00,78.2,51.2,30.02,SSW,202,0.0,0.0,39,0.00,,---,0.00,VWS V14.01,2013-09-27 18:57:00,
2013-09-27 14:58:00,78.6,51.6,30.02,SSW,202,0.0,0.0,39,0.00,,---,0.00,VWS V14.01,2013-09-27 18:58:00,
2013-09-27 14:59:00,78.6,51.6,30.02,SSW,202,0.0,0.0,39,0.00,,---,0.00,VWS V14.01,2013-09-27 18:59:00,
2013-09-27 15:01:00,78.9,52.5,30.02,SSW,202,0.0,0.0,40,0.00,,---,0.00,VWS V14.01,2013-09-27 19:01:00,
2013-09-27 15:03:00,78.9,51.9,30.02,WSW,248,0.0,0.0,39,0.00,,---,0.00,VWS V14.01,2013-09-27 19:03:00,
2013-09-27 15:04:00,78.7,51.0,30.02,WSW,248,0.0,0.0,38,0.00,,---,0.00,VWS V14.01,2013-09-27 19:04:00,
2013-09-27 15:07:00,78.0,50.4,30.02,WSW,248,0.0,0.0,38,0.00,,---,0.00,VWS V14.01,2013-09-27 19:07:00,
2013-09-27 15:08:00,78.0,49.7,30.02,WSW,248,0.0,0.0,37,0.00,,---,0.00,VWS V14.01,2013-09-27 19:08:00,
2013-09-27 15:09:00,77.1,48.8,30.02,WSW,248,0.0,0.0,37,0.00,,---,0.00,VWS V14.01,2013-09-27 19:09:00,
2013-09-27 15:10:00,77.1,48.8,30.02,WSW,248,0.0,0.0,37,0.00,,---,0.00,VWS V14.01,2013-09-27 19:10:00,
2013-09-27 15:12:00,76.4,49.6,30.02,WSW,248,0.0,0.0,39,0.00,,---,0.00,VWS V14.01,2013-09-27 19:12:00,
2013-09-27 15:13:00,75.9,48.5,30.02,WSW,248,0.0,0.0,38,0.00,,---,0.00,VWS V14.01,2013-09-27 19:13:00,
2013-09-27 15:14:00,75.9,48.5,30.02,WSW,248,0.0,0.0,38,0.00,,---,0.00,VWS V14.01,2013-09-27 19:14:00,
2013-09-27 15:15:00,75.9,48.5,30.02,WSW,248,0.0,0.0,38,0.00,,---,0.00,VWS V14.01,2013-09-27 19:15:00,
2013-09-27 15:17:00,75.3,48.7,30.02,WSW,248,0.0,0.0,39,0.00,,---,0.00,VWS V14.01,2013-09-27 19:17:00,
2013-09-27 15:19:00,75.9,50.5,30.02,WSW,248,0.0,0.0,41,0.00,,---,0.00,VWS V14.01,2013-09-27 19:19:00,
2013-09-27 15:20:00,75.9,50.5,30.02,WSW,248,0.0,0.0,41,0.00,,---,0.00,VWS V14.01,2013-09-27 19:20:00,
2013-09-27 15:21:00,76.4,51.0,30.02,WSW,248,0.0,0.0,41,0.00,,---,0.00,VWS V14.01,2013-09-27 19:21:00,
2013-09-27 15:23:00,76.4,49.6,30.02,WSW,248,0.0,0.0,39,0.00,,---,0.00,VWS V14.01,2013-09-27 19:23:00,
2013-09-27 15:25:00,76.9,48.7,30.02,SW,225,0.0,0.0,37,0.00,,---,0.00,VWS V14.01,2013-09-27 19:25:00,
2013-09-27 15:26:00,77.3,48.3,30.02,SW,225,0.0,0.0,36,0.00,,---,0.00,VWS V14.01,2013-09-27 19:26:00,
2013-09-27 15:28:00,77.5,48.5,30.02,SW,225,0.0,0.0,36,0.00,,---,0.00,VWS V14.01,2013-09-27 19:28:00,
2013-09-27 15:30:00,77.7,47.9,30.01,SW,225,0.0,0.0,35,0.00,,---,0.00,VWS V14.01,2013-09-27 19:30:00,
2013-09-27 15:32:00,77.8,48.0,30.01,SW,225,0.0,0.0,35,0.00,,---,0.00,VWS V14.01,2013-09-27 19:32:00,
2013-09-27 15:33:00,77.8,48.0,30.01,SW,225,0.0,0.0,35,0.00,,---,0.00,VWS V14.01,2013-09-27 19:33:00,
2013-09-27 15:35:00,78.0,47.4,30.01,SW,225,0.0,0.0,34,0.00,,---,0.00,VWS V14.01,2013-09-27 19:35:00,
2013-09-27 15:36:00,77.8,47.2,30.01,SW,225,0.0,0.0,34,0.00,,---,0.00,VWS V14.01,2013-09-27 19:36:00,
2013-09-27 15:37:00,77.8,47.2,30.01,SW,225,0.0,0.0,34,0.00,,---,0.00,VWS V14.01,2013-09-27 19:37:00,
2013-09-27 15:38:00,77.8,47.2,30.01,SW,225,0.0,0.0,34,0.00,,---,0.00,VWS V14.01,2013-09-27 19:38:00,
2013-09-27 15:41:00,78.0,48.2,30.01,SW,225,0.0,0.0,35,0.00,,---,0.00,VWS V14.01,2013-09-27 19:41:00,
2013-09-27 15:42:00,78.2,49.1,30.01,SW,225,0.0,0.0,36,0.00,,---,0.00,VWS V14.01,2013-09-27 19:42:00,
2013-09-27 15:43:00,78.2,48.3,30.01,SW,225,0.0,0.0,35,0.00,,---,0.00,VWS V14.01,2013-09-27 19:43:00,
2013-09-27 15:46:00,78.2,48.3,30.01,SW,225,0.0,0.0,35,0.00,,---,0.00,VWS V14.01,2013-09-27 19:46:00,
2013-09-27 15:47:00,78.6,47.9,30.01,SW,225,0.0,0.0,34,0.00,,---,0.00,VWS V14.01,2013-09-27 19:47:00,
2013-09-27 15:48:00,78.6,47.9,30.01,SW,225,0.0,0.0,34,0.00,,---,0.00,VWS V14.01,2013-09-27 19:48:00,
2013-09-27 15:49:00,78.6,47.9,30.01,SW,225,0.0,0.0,34,0.00,,---,0.00,VWS V14.01,2013-09-27 19:49:00,
2013-09-27 15:51:00,78.7,47.2,30.01,SW,225,0.0,0.0,33,0.00,,---,0.00,VWS V14.01,2013-09-27 19:51:00,
2013-09-27 15:53:00,78.7,48.8,30.00,SW,225,0.0,0.0,35,0.00,,---,0.00,VWS V14.01,2013-09-27 19:53:00,
2013-09-27 15:54:00,78.7,48.8,30.01,SW,225,0.0,0.0,35,0.00,,---,0.00,VWS V14.01,2013-09-27 19:54:00,
2013-09-27 15:56:00,78.9,48.2,30.00,West,270,0.0,0.0,34,0.00,,---,0.00,VWS V14.01,2013-09-27 19:56:00,
2013-09-27 15:57:00,78.9,48.2,30.01,West,270,0.0,0.0,34,0.00,,---,0.00,VWS V14.01,2013-09-27 19:57:00,
2013-09-27 15:58:00,78.7,47.2,30.01,West,270,0.0,0.0,33,0.00,,---,0.00,VWS V14.01,2013-09-27 19:58:00,
2013-09-27 15:59:00,78.7,47.2,30.01,West,270,0.0,0.0,33,0.00,,---,0.00,VWS V14.01,2013-09-27 19:59:00,
2013-09-27 16:00:00,78.9,49.0,30.01,West,270,0.0,0.0,35,0.00,,---,0.00,VWS V14.01,2013-09-27 20:00:00,
2013-09-27 16:02:00,79.1,48.3,30.01,West,270,0.0,0.0,34,0.00,,---,0.00,VWS V14.01,2013-09-27 20:02:00,
2013-09-27 16:03:00,79.1,48.3,30.01,West,270,0.0,0.0,34,0.00,,---,0.00,VWS V14.01,2013-09-27 20:03:00,
2013-09-27 16:04:00,79.1,48.3,30.00,West,270,0.0,0.0,34,0.00,,---,0.00,VWS V14.01,2013-09-27 20:04:00,
2013-09-27 16:05:00,79.1,48.3,30.00,West,270,0.0,0.0,34,0.00,,---,0.00,VWS V14.01,2013-09-27 20:05:00,
2013-09-27 16:07:00,78.9,47.4,30.01,West,270,0.0,0.0,33,0.00,,---,0.00,VWS V14.01,2013-09-27 20:07:00,
2013-09-27 16:08:00,78.6,47.1,30.00,West,270,0.0,0.0,33,0.00,,---,0.00,VWS V14.01,2013-09-27 20:08:00,
2013-09-27 16:09:00,78.6,47.1,30.00,West,270,0.0,0.0,33,0.00,,---,0.00,VWS V14.01,2013-09-27 20:09:00,
2013-09-27 16:10:00,78.6,47.1,30.01,West,270,0.0,0.0,33,0.00,,---,0.00,VWS V14.01,2013-09-27 20:10:00,
2013-09-27 16:12:00,77.8,47.2,30.00,West,270,0.0,0.0,34,0.00,,---,0.00,VWS V14.01,2013-09-27 20:12:00,
2013-09-27 16:14:00,77.8,47.2,30.01,West,270,0.0,0.0,34,0.00,,---,0.00,VWS V14.01,2013-09-27 20:14:00,
2013-09-27 16:16:00,78.0,49.7,30.00,West,270,0.0,0.0,37,0.00,,---,0.00,VWS V14.01,2013-09-27 20:16:00,
2013-09-27 16:17:00,77.7,48.7,30.01,West,270,0.0,0.0,36,0.00,,---,0.00,VWS V14.01,2013-09-27 20:17:00,
2013-09-27 16:19:00,77.1,47.4,30.01,West,270,0.0,0.0,35,0.00,,---,0.00,VWS V14.01,2013-09-27 20:19:00,
2013-09-27 16:20:00,77.1,47.4,30.01,West,270,0.0,0.0,35,0.00,,---,0.00,VWS V14.01,2013-09-27 20:20:00,
2013-09-27 16:21:00,76.8,47.8,30.01,West,270,0.0,0.0,36,0.00,,---,0.00,VWS V14.01,2013-09-27 20:21:00,
2013-09-27 16:22:00,76.8,47.8,30.01,West,270,0.0,0.0,36,0.00,,---,0.00,VWS V14.01,2013-09-27 20:22:00,
2013-09-27 16:24:00,76.4,48.9,30.01,West,270,0.0,0.0,38,0.00,,---,0.00,VWS V14.01,2013-09-27 20:24:00,
2013-09-27 16:25:00,76.4,48.9,30.01,West,270,0.0,0.0,38,0.00,,---,0.00,VWS V14.01,2013-09-27 20:25:00,
2013-09-27 16:27:00,76.0,48.6,30.01,West,270,0.0,0.0,38,0.00,,---,0.00,VWS V14.01,2013-09-27 20:27:00,
2013-09-27 16:28:00,76.0,48.6,30.01,West,270,0.0,0.0,38,0.00,,---,0.00,VWS V14.01,2013-09-27 20:28:00,
2013-09-27 16:29:00,76.4,49.6,30.00,West,270,0.0,0.0,39,0.00,,---,0.00,VWS V14.01,2013-09-27 20:29:00,
2013-09-27 16:30:00,76.9,50.1,30.00,West,270,0.0,0.0,39,0.00,,---,0.00,VWS V14.01,2013-09-27 20:30:00,
2013-09-27 16:32:00,76.9,47.9,30.00,West,270,0.0,0.0,36,0.00,,---,0.00,VWS V14.01,2013-09-27 20:32:00,
2013-09-27 16:33:00,76.9,47.9,30.00,West,270,0.0,0.0,36,0.00,,---,0.00,VWS V14.01,2013-09-27 20:33:00,
2013-09-27 16:34:00,76.9,47.2,30.00,West,270,0.0,0.0,35,0.00,,---,0.00,VWS V14.01,2013-09-27 20:34:00,
2013-09-27 16:35:00,76.9,47.2,30.00,West,270,0.0,0.0,35,0.00,,---,0.00,VWS V14.01,2013-09-27 20:35:00,
2013-09-27 16:37:00,76.6,47.7,30.00,West,270,0.0,0.0,36,0.00,,---,0.00,VWS V14.01,2013-09-27 20:37:00,
2013-09-27 16:38:00,76.8,47.8,30.00,West,270,0.0,0.0,36,0.00,,---,0.00,VWS V14.01,2013-09-27 20:38:00,
2013-09-27 16:40:00,76.8,47.8,30.00,West,270,0.0,0.0,36,0.00,,---,0.00,VWS V14.01,2013-09-27 20:40:00,
2013-09-27 16:41:00,76.8,47.8,30.00,West,270,0.0,0.0,36,0.00,,---,0.00,VWS V14.01,2013-09-27 20:41:00,
2013-09-27 16:43:00,76.9,47.9,30.00,West,270,0.0,0.0,36,0.00,,---,0.00,VWS V14.01,2013-09-27 20:43:00,
2013-09-27 16:45:00,77.7,47.9,30.00,SW,225,0.0,0.0,35,0.00,,---,0.00,VWS V14.01,2013-09-27 20:45:00,
2013-09-27 16:46:00,77.7,47.9,30.00,SW,225,0.0,0.0,35,0.00,,---,0.00,VWS V14.01,2013-09-27 20:46:00,
2013-09-27 16:48:00,77.8,48.7,30.00,SW,225,0.0,0.0,36,0.00,,---,0.00,VWS V14.01,2013-09-27 20:48:00,
2013-09-27 16:49:00,77.8,48.7,30.00,SW,225,0.0,0.0,36,0.00,,---,0.00,VWS V14.01,2013-09-27 20:49:00,
2013-09-27 16:51:00,78.0,48.9,30.00,SW,225,0.0,0.0,36,0.00,,---,0.00,VWS V14.01,2013-09-27 20:51:00,
2013-09-27 16:53:00,78.4,48.5,30.00,SW,225,0.0,0.0,35,0.00,,---,0.00,VWS V14.01,2013-09-27 20:53:00,
2013-09-27 16:54:00,78.4,48.5,30.00,SW,225,0.0,0.0,35,0.00,,---,0.00,VWS V14.01,2013-09-27 20:54:00,
2013-09-27 16:56:00,78.2,48.3,30.00,SW,225,0.0,0.0,35,0.00,,---,0.00,VWS V14.01,2013-09-27 20:56:00,
2013-09-27 16:57:00,78.2,48.3,30.00,SW,225,0.0,0.0,35,0.00,,---,0.00,VWS V14.01,2013-09-27 20:57:00,
2013-09-27 16:59:00,78.4,47.7,30.00,SW,225,0.0,0.0,34,0.00,,---,0.00,VWS V14.01,2013-09-27 20:59:00,
2013-09-27 17:00:00,78.2,48.3,29.99,SW,225,0.0,0.0,35,0.00,,---,0.00,VWS V14.01,2013-09-27 21:00:00,
2013-09-27 17:02:00,78.2,48.3,30.00,SW,225,0.0,0.0,35,0.00,,---,0.00,VWS V14.01,2013-09-27 21:02:00,
2013-09-27 17:04:00,78.6,46.3,30.00,West,270,0.0,0.0,32,0.00,,---,0.00,VWS V14.01,2013-09-27 21:04:00,
2013-09-27 17:05:00,78.6,46.3,30.00,West,270,0.0,0.0,32,0.00,,---,0.00,VWS V14.01,2013-09-27 21:05:00,
2013-09-27 17:07:00,78.4,46.1,29.99,West,270,0.0,0.0,32,0.00,,---,0.00,VWS V14.01,2013-09-27 21:07:00,
2013-09-27 17:09:00,78.6,47.1,30.00,West,270,0.0,0.0,33,0.00,,---,0.00,VWS V14.01,2013-09-27 21:09:00,
2013-09-27 17:10:00,78.9,47.4,29.99,West,270,0.0,0.0,33,0.00,,---,0.00,VWS V14.01,2013-09-27 21:10:00,
2013-09-27 17:11:00,78.9,47.4,29.99,West,270,0.0,0.0,33,0.00,,---,0.00,VWS V14.01,2013-09-27 21:11:00,
2013-09-27 17:12:00,78.7,46.4,30.00,West,270,0.0,0.0,32,0.00,,---,0.00,VWS V14.01,2013-09-27 21:12:00,
2013-09-27 17:15:00,78.4,46.1,29.99,West,270,0.0,0.0,32,0.00,,---,0.00,VWS V14.01,2013-09-27 21:15:00,
2013-09-27 17:16:00,78.4,46.1,29.99,West,270,0.0,0.0,32,0.00,,---,0.00,VWS V14.01,2013-09-27 21:16:00,
2013-09-27 17:17:00,78.4,46.1,29.99,West,270,0.0,0.0,32,0.00,,---,0.00,VWS V14.01,2013-09-27 21:17:00,
2013-09-27 17:20:00,78.0,44.1,30.00,West,270,0.0,0.0,30,0.00,,---,0.00,VWS V14.01,2013-09-27 21:20:00,
2013-09-27 17:21:00,78.0,44.1,30.00,West,270,0.0,0.0,30,0.00,,---,0.00,VWS V14.01,2013-09-27 21:21:00,
2013-09-27 17:22:00,78.2,45.1,30.00,West,270,0.0,0.0,31,0.00,,---,0.00,VWS V14.01,2013-09-27 21:22:00,
2013-09-27 17:26:00,78.4,47.0,29.99,West,270,0.0,0.0,33,0.00,,---,0.00,VWS V14.01,2013-09-27 21:26:00,
2013-09-27 17:27:00,78.4,47.0,29.99,West,270,0.0,0.0,33,0.00,,---,0.00,VWS V14.01,2013-09-27 21:27:00,
2013-09-27 17:31:00,78.6,47.1,30.00,West,270,0.0,0.0,33,0.00,,---,0.00,VWS V14.01,2013-09-27 21:31:00,
2013-09-27 17:32:00,78.6,47.1,29.99,WSW,248,0.0,0.0,33,0.00,,---,0.00,VWS V14.01,2013-09-27 21:32:00,
2013-09-27 17:33:00,78.6,47.1,29.99,WSW,248,0.0,0.0,33,0.00,,---,0.00,VWS V14.01,2013-09-27 21:33:00,
2013-09-27 17:36:00,78.2,46.0,30.00,WSW,248,0.0,0.0,32,0.00,,---,0.00,VWS V14.01,2013-09-27 21:36:00,
2013-09-27 17:37:00,78.2,46.0,30.00,WSW,248,0.0,0.0,32,0.00,,---,0.00,VWS V14.01,2013-09-27 21:37:00,
2013-09-27 17:38:00,78.2,45.1,30.00,WSW,248,0.0,0.0,31,0.00,,---,0.00,VWS V14.01,2013-09-27 21:38:00,
2013-09-27 17:41:00,78.0,47.4,30.00,WSW,248,0.0,0.0,34,0.00,,---,0.00,VWS V14.01,2013-09-27 21:41:00,
2013-09-27 17:42:00,77.7,47.1,30.00,WSW,248,0.0,0.0,34,0.00,,---,0.00,VWS V14.01,2013-09-27 21:42:00,
2013-09-27 17:43:00,77.7,47.1,30.00,WSW,248,0.0,0.0,34,0.00,,---,0.00,VWS V14.01,2013-09-27 21:43:00,
2013-09-27 17:44:00,77.7,47.9,30.00,WSW,248,0.0,0.0,35,0.00,,---,0.00,VWS V14.01,2013-09-27 21:44:00,
2013-09-27 17:47:00,77.7,47.9,30.00,WSW,248,0.0,0.0,35,0.00,,---,0.00,VWS V14.01,2013-09-27 21:47:00,
2013-09-27 17:48:00,77.7,47.9,30.00,WSW,248,0.0,0.0,35,0.00,,---,0.00,VWS V14.01,2013-09-27 21:48:00,
2013-09-27 17:50:00,77.5,47.7,30.00,WSW,248,0.0,0.0,35,0.00,,---,0.00,VWS V14.01,2013-09-27 21:50:00,
2013-09-27 17:52:00,77.7,47.9,30.00,WSW,248,0.0,0.0,35,0.00,,---,0.00,VWS V14.01,2013-09-27 21:52:00,
2013-09-27 17:53:00,77.3,47.5,30.00,WSW,248,0.0,0.0,35,0.00,,---,0.00,VWS V14.01,2013-09-27 21:53:00,
2013-09-27 17:55:00,77.1,48.1,30.00,WSW,248,0.0,0.0,36,0.00,,---,0.00,VWS V14.01,2013-09-27 21:55:00,
2013-09-27 17:57:00,77.3,48.3,30.00,WSW,248,0.0,0.0,36,0.00,,---,0.00,VWS V14.01,2013-09-27 21:57:00,
2013-09-27 17:58:00,77.3,48.3,30.00,WSW,248,0.0,0.0,36,0.00,,---,0.00,VWS V14.01,2013-09-27 21:58:00,
2013-09-27 17:59:00,77.3,48.3,30.00,WSW,248,0.0,0.0,36,0.00,,---,0.00,VWS V14.01,2013-09-27 21:59:00,
2013-09-27 18:00:00,77.3,47.5,30.00,WSW,248,0.0,0.0,35,0.00,,---,0.00,VWS V14.01,2013-09-27 22:00:00,
2013-09-27 18:03:00,77.5,47.7,30.00,WSW,248,0.0,0.0,35,0.00,,---,0.00,VWS V14.01,2013-09-27 22:03:00,
2013-09-27 18:04:00,77.5,47.7,30.00,WSW,248,0.0,0.0,35,0.00,,---,0.00,VWS V14.01,2013-09-27 22:04:00,
2013-09-27 18:05:00,77.1,46.6,30.00,WSW,248,0.0,0.0,34,0.00,,---,0.00,VWS V14.01,2013-09-27 22:05:00,
2013-09-27 18:06:00,77.1,48.1,30.00,WSW,248,0.0,0.0,36,0.00,,---,0.00,VWS V14.01,2013-09-27 22:06:00,
2013-09-27 18:08:00,77.1,48.8,30.00,WSW,248,0.0,0.0,37,0.00,,---,0.00,VWS V14.01,2013-09-27 22:08:00,
2013-09-27 18:09:00,77.1,48.8,30.00,WSW,248,0.0,0.0,37,0.00,,---,0.00,VWS V14.01,2013-09-27 22:09:00,
2013-09-27 18:11:00,76.9,47.9,30.00,WSW,248,0.0,0.0,36,0.00,,---,0.00,VWS V14.01,2013-09-27 22:11:00,
2013-09-27 18:13:00,76.9,47.9,30.00,WSW,248,0.0,0.0,36,0.00,,---,0.00,VWS V14.01,2013-09-27 22:13:00,
2013-09-27 18:14:00,76.9,47.2,30.00,WSW,248,0.0,0.0,35,0.00,,---,0.00,VWS V14.01,2013-09-27 22:14:00,
2013-09-27 18:15:00,76.9,47.2,30.00,WSW,248,0.0,0.0,35,0.00,,---,0.00,VWS V14.01,2013-09-27 22:15:00,
2013-09-27 18:16:00,76.8,48.6,30.00,WSW,248,0.0,0.0,37,0.00,,---,0.00,VWS V14.01,2013-09-27 22:16:00,
2013-09-27 18:18:00,76.4,48.2,30.00,WSW,248,0.0,0.0,37,0.00,,---,0.00,VWS V14.01,2013-09-27 22:18:00,
2013-09-27 18:19:00,76.4,48.2,30.00,WSW,248,0.0,0.0,37,0.00,,---,0.00,VWS V14.01,2013-09-27 22:19:00,
2013-09-27 18:20:00,76.4,48.2,30.00,WSW,248,0.0,0.0,37,0.00,,---,0.00,VWS V14.01,2013-09-27 22:20:00,
2013-09-27 18:22:00,76.4,47.5,30.00,WSW,248,0.0,0.0,36,0.00,,---,0.00,VWS V14.01,2013-09-27 22:22:00,
2013-09-27 18:24:00,76.4,48.2,29.99,SW,225,0.0,0.0,37,0.00,,---,0.00,VWS V14.01,2013-09-27 22:24:00,
2013-09-27 18:25:00,76.4,47.5,30.00,SW,225,0.0,0.0,36,0.00,,---,0.00,VWS V14.01,2013-09-27 22:25:00,
2013-09-27 18:26:00,76.4,47.5,29.99,SW,225,0.0,0.0,36,0.00,,---,0.00,VWS V14.01,2013-09-27 22:26:00,
2013-09-27 18:27:00,76.0,47.2,30.00,SW,225,0.0,0.0,36,0.00,,---,0.00,VWS V14.01,2013-09-27 22:27:00,
2013-09-27 18:29:00,76.0,47.2,30.00,SW,225,0.0,0.0,36,0.00,,---,0.00,VWS V14.01,2013-09-27 22:29:00,
2013-09-27 18:30:00,76.0,47.2,30.00,SW,225,0.0,0.0,36,0.00,,---,0.00,VWS V14.01,2013-09-27 22:30:00,
2013-09-27 18:31:00,76.0,47.2,30.00,SW,225,0.0,0.0,36,0.00,,---,0.00,VWS V14.01,2013-09-27 22:31:00,
2013-09-27 18:33:00,76.0,47.9,30.00,SW,225,0.0,0.0,37,0.00,,---,0.00,VWS V14.01,2013-09-27 22:33:00,
2013-09-27 18:35:00,75.7,47.6,30.00,SW,225,0.0,0.0,37,0.00,,---,0.00,VWS V14.01,2013-09-27 22:35:00,
2013-09-27 18:36:00,75.7,48.3,30.00,SW,225,0.0,0.0,38,0.00,,---,0.00,VWS V14.01,2013-09-27 22:36:00,
2013-09-27 18:38:00,75.3,48.0,30.00,SW,225,0.0,0.0,38,0.00,,---,0.00,VWS V14.01,2013-09-27 22:38:00,
2013-09-27 18:39:00,75.3,48.0,30.00,SW,225,0.0,0.0,38,0.00,,---,0.00,VWS V14.01,2013-09-27 22:39:00,
2013-09-27 18:40:00,75.3,48.7,30.00,SW,225,0.0,0.0,39,0.00,,---,0.00,VWS V14.01,2013-09-27 22:40:00,
2013-09-27 18:41:00,75.3,48.7,30.00,SW,225,0.0,0.0,39,0.00,,---,0.00,VWS V14.01,2013-09-27 22:41:00,
2013-09-27 18:43:00,74.8,48.9,30.00,SW,225,0.0,0.0,40,0.00,,---,0.00,VWS V14.01,2013-09-27 22:43:00,
2013-09-27 18:44:00,74.8,48.9,30.00,SW,225,0.0,0.0,40,0.00,,---,0.00,VWS V14.01,2013-09-27 22:44:00,
2013-09-27 18:46:00,74.8,48.9,30.00,SW,225,0.0,0.0,40,0.00,,---,0.00,VWS V14.01,2013-09-27 22:46:00,
2013-09-27 18:47:00,74.6,48.7,30.00,SW,225,0.0,0.0,40,0.00,,---,0.00,VWS V14.01,2013-09-27 22:47:00,
2013-09-27 18:48:00,74.2,49.0,30.00,SW,225,0.0,0.0,41,0.00,,---,0.00,VWS V14.01,2013-09-27 22:48:00,
2013-09-27 18:50:00,74.2,49.0,30.00,SW,225,0.0,0.0,41,0.00,,---,0.00,VWS V14.01,2013-09-27 22:50:00,
2013-09-27 18:51:00,74.2,49.0,30.00,SW,225,0.0,0.0,41,0.00,,---,0.00,VWS V14.01,2013-09-27 22:51:00,
2013-09-27 18:52:00,74.1,48.9,30.00,SW,225,0.0,0.0,41,0.00,,---,0.00,VWS V14.01,2013-09-27 22:52:00,
2013-09-27 18:53:00,74.1,48.9,30.00,SW,225,0.0,0.0,41,0.00,,---,0.00,VWS V14.01,2013-09-27 22:53:00,
2013-09-27 18:55:00,73.5,48.4,30.00,SW,225,0.0,0.0,41,0.00,,---,0.00,VWS V14.01,2013-09-27 22:55:00,
2013-09-27 18:56:00,73.5,48.4,30.00,SW,225,0.0,0.0,41,0.00,,---,0.00,VWS V14.01,2013-09-27 22:56:00,
2013-09-27 18:58:00,73.5,49.0,30.00,SW,225,0.0,0.0,42,0.00,,---,0.00,VWS V14.01,2013-09-27 22:58:00,
2013-09-27 19:01:00,73.3,48.8,30.00,SW,225,0.0,0.0,42,0.00,,---,0.00,VWS V14.01,2013-09-27 23:01:00,
2013-09-27 19:02:00,73.3,49.5,30.00,SW,225,0.0,0.0,43,0.00,,---,0.00,VWS V14.01,2013-09-27 23:02:00,
2013-09-27 19:04:00,73.2,49.4,30.00,SW,225,0.0,0.0,43,0.00,,---,0.00,VWS V14.01,2013-09-27 23:04:00,
2013-09-27 19:06:00,73.0,49.2,30.00,SW,225,0.0,0.0,43,0.00,,---,0.00,VWS V14.01,2013-09-27 23:06:00,
2013-09-27 19:07:00,73.0,49.8,30.00,SW,225,0.0,0.0,44,0.00,,---,0.00,VWS V14.01,2013-09-27 23:07:00,
2013-09-27 19:09:00,72.8,49.6,30.00,SW,225,0.0,0.0,44,0.00,,---,0.00,VWS V14.01,2013-09-27 23:09:00,
2013-09-27 19:10:00,72.8,49.6,30.00,SW,225,0.0,0.0,44,0.00,,---,0.00,VWS V14.01,2013-09-27 23:10:00,
2013-09-27 19:11:00,72.8,50.2,30.00,SW,225,0.0,0.0,45,0.00,,---,0.00,VWS V14.01,2013-09-27 23:11:00,
2013-09-27 19:12:00,72.8,50.2,30.00,SW,225,0.0,0.0,45,0.00,,---,0.00,VWS V14.01,2013-09-27 23:12:00,
2013-09-27 19:14:00,72.3,50.4,30.00,SW,225,0.0,0.0,46,0.00,,---,0.00,VWS V14.01,2013-09-27 23:14:00,
2013-09-27 19:15:00,72.3,50.4,30.00,SW,225,0.0,0.0,46,0.00,,---,0.00,VWS V14.01,2013-09-27 23:15:00,
2013-09-27 19:17:00,72.8,49.6,30.00,SW,225,0.0,0.0,44,0.00,,---,0.00,VWS V14.01,2013-09-27 23:17:00,
2013-09-27 19:18:00,72.8,49.6,30.00,SW,225,0.0,0.0,44,0.00,,---,0.00,VWS V14.01,2013-09-27 23:18:00,
2013-09-27 19:19:00,73.2,50.0,30.00,SW,225,0.0,0.0,44,0.00,,---,0.00,VWS V14.01,2013-09-27 23:19:00,
2013-09-27 19:22:00,73.3,50.1,30.00,SW,225,0.0,0.0,44,0.00,,---,0.00,VWS V14.01,2013-09-27 23:22:00,
2013-09-27 19:23:00,73.3,49.5,30.00,SW,225,0.0,0.0,43,0.00,,---,0.00,VWS V14.01,2013-09-27 23:23:00,
2013-09-27 19:25:00,73.3,49.5,30.00,SW,225,0.0,0.0,43,0.00,,---,0.00,VWS V14.01,2013-09-27 23:25:00,
2013-09-27 19:27:00,73.5,49.7,30.00,SW,225,0.0,0.0,43,0.00,,---,0.00,VWS V14.01,2013-09-27 23:27:00,
2013-09-27 19:28:00,73.5,49.7,30.00,SW,225,0.0,0.0,43,0.00,,---,0.00,VWS V14.01,2013-09-27 23:28:00,
2013-09-27 19:29:00,73.5,49.7,30.00,SW,225,0.0,0.0,43,0.00,,---,0.00,VWS V14.01,2013-09-27 23:29:00,
2013-09-27 19:30:00,73.5,49.7,30.01,SW,225,0.0,0.0,43,0.00,,---,0.00,VWS V14.01,2013-09-27 23:30:00,
2013-09-27 19:32:00,73.9,49.4,30.01,SW,225,0.0,0.0,42,0.00,,---,0.00,VWS V14.01,2013-09-27 23:32:00,
2013-09-27 19:33:00,73.9,49.4,30.01,SW,225,0.0,0.0,42,0.00,,---,0.00,VWS V14.01,2013-09-27 23:33:00,
2013-09-27 19:34:00,73.9,49.4,30.00,SW,225,0.0,0.0,42,0.00,,---,0.00,VWS V14.01,2013-09-27 23:34:00,
2013-09-27 19:36:00,73.9,49.4,30.01,SW,225,0.0,0.0,42,0.00,,---,0.00,VWS V14.01,2013-09-27 23:36:00,
2013-09-27 19:38:00,74.1,49.6,30.01,SW,225,0.0,0.0,42,0.00,,---,0.00,VWS V14.01,2013-09-27 23:38:00,
2013-09-27 19:39:00,74.1,49.6,30.01,SW,225,0.0,0.0,42,0.00,,---,0.00,VWS V14.01,2013-09-27 23:39:00,
2013-09-27 19:41:00,74.1,48.9,30.01,SW,225,0.0,0.0,41,0.00,,---,0.00,VWS V14.01,2013-09-27 23:41:00,
2013-09-27 19:43:00,73.9,48.7,30.01,SW,225,0.0,0.0,41,0.00,,---,0.00,VWS V14.01,2013-09-27 23:43:00,
2013-09-27 19:44:00,73.9,48.7,30.01,SW,225,0.0,0.0,41,0.00,,---,0.00,VWS V14.01,2013-09-27 23:44:00,
2013-09-27 19:47:00,73.9,49.4,30.01,SW,225,0.0,0.0,42,0.00,,---,0.00,VWS V14.01,2013-09-27 23:47:00,
2013-09-27 19:48:00,73.5,49.0,30.01,SW,225,0.0,0.0,42,0.00,,---,0.00,VWS V14.01,2013-09-27 23:48:00,
2013-09-27 19:49:00,73.5,49.0,30.01,SW,225,0.0,0.0,42,0.00,,---,0.00,VWS V14.01,2013-09-27 23:49:00,
2013-09-27 19:50:00,73.5,49.0,30.01,SW,225,0.0,0.0,42,0.00,,---,0.00,VWS V14.01,2013-09-27 23:50:00,
2013-09-27 19:52:00,73.3,48.8,30.01,SW,225,0.0,0.0,42,0.00,,---,0.00,VWS V14.01,2013-09-27 23:52:00,
2013-09-27 19:53:00,73.3,48.8,30.01,SW,225,0.0,0.0,42,0.00,,---,0.00,VWS V14.01,2013-09-27 23:53:00,
2013-09-27 19:54:00,73.3,48.8,30.01,SW,225,0.0,0.0,42,0.00,,---,0.00,VWS V14.01,2013-09-27 23:54:00,
2013-09-27 19:55:00,73.5,49.0,30.00,SW,225,0.0,0.0,42,0.00,,---,0.00,VWS V14.01,2013-09-27 23:55:00,
2013-09-27 19:56:00,73.5,49.0,30.01,SW,225,0.0,0.0,42,0.00,,---,0.00,VWS V14.01,2013-09-27 23:56:00,
2013-09-27 19:58:00,73.3,48.8,30.01,SW,225,0.0,0.0,42,0.00,,---,0.00,VWS V14.01,2013-09-27 23:58:00,
2013-09-27 19:59:00,73.3,48.8,30.01,SW,225,0.0,0.0,42,0.00,,---,0.00,VWS V14.01,2013-09-27 23:59:00,
2013-09-27 20:01:00,73.3,48.8,30.01,SW,225,0.0,0.0,42,0.00,,---,0.00,VWS V14.01,2013-09-28 00:01:00,
2013-09-27 20:03:00,73.3,48.8,30.01,SW,225,0.0,0.0,42,0.00,,---,0.00,VWS V14.01,2013-09-28 00:03:00,
2013-09-27 20:04:00,73.3,48.8,30.01,SW,225,0.0,0.0,42,0.00,,---,0.00,VWS V14.01,2013-09-28 00:04:00,
2013-09-27 20:05:00,73.3,48.8,30.01,SW,225,0.0,0.0,42,0.00,,---,0.00,VWS V14.01,2013-09-28 00:05:00,
2013-09-27 20:06:00,73.3,49.5,30.00,SW,225,0.0,0.0,43,0.00,,---,0.00,VWS V14.01,2013-09-28 00:06:00,
2013-09-27 20:07:00,73.3,49.5,30.00,SW,225,0.0,0.0,43,0.00,,---,0.00,VWS V14.01,2013-09-28 00:07:00,
2013-09-27 20:08:00,73.3,49.5,30.00,SW,225,0.0,0.0,43,0.00,,---,0.00,VWS V14.01,2013-09-28 00:08:00,
2013-09-27 20:09:00,73.3,49.5,30.00,SW,225,0.0,0.0,43,0.00,,---,0.00,VWS V14.01,2013-09-28 00:09:00,
2013-09-27 20:10:00,73.3,49.5,30.00,SW,225,0.0,0.0,43,0.00,,---,0.00,VWS V14.01,2013-09-28 00:10:00,
2013-09-27 20:11:00,73.3,49.5,30.01,SW,225,0.0,0.0,43,0.00,,---,0.00,VWS V14.01,2013-09-28 00:11:00,
2013-09-27 20:12:00,73.3,49.5,30.00,SW,225,0.0,0.0,43,0.00,,---,0.00,VWS V14.01,2013-09-28 00:12:00,
2013-09-27 20:13:00,73.3,49.5,30.01,SW,225,0.0,0.0,43,0.00,,---,0.00,VWS V14.01,2013-09-28 00:13:00,
2013-09-27 20:15:00,73.3,49.5,30.00,SW,225,0.0,0.0,43,0.00,,---,0.00,VWS V14.01,2013-09-28 00:15:00,
2013-09-27 20:16:00,73.2,49.4,30.01,SW,225,0.0,0.0,43,0.00,,---,0.00,VWS V14.01,2013-09-28 00:16:00,
2013-09-27 20:17:00,73.2,49.4,30.01,SW,225,0.0,0.0,43,0.00,,---,0.00,VWS V14.01,2013-09-28 00:17:00,
2013-09-27 20:19:00,73.3,49.5,30.01,SW,225,0.0,0.0,43,0.00,,---,0.00,VWS V14.01,2013-09-28 00:19:00,
2013-09-27 20:20:00,73.3,49.5,30.01,SW,225,0.0,0.0,43,0.00,,---,0.00,VWS V14.01,2013-09-28 00:20:00,
2013-09-27 20:22:00,73.3,49.5,30.01,SW,225,0.0,0.0,43,0.00,,---,0.00,VWS V14.01,2013-09-28 00:22:00,
2013-09-27 20:24:00,73.3,49.5,30.01,SW,225,0.0,0.0,43,0.00,,---,0.00,VWS V14.01,2013-09-28 00:24:00,
2013-09-27 20:25:00,73.3,49.5,30.01,SW,225,0.0,0.0,43,0.00,,---,0.00,VWS V14.01,2013-09-28 00:25:00,
2013-09-27 20:26:00,73.3,49.5,30.01,SW,225,0.0,0.0,43,0.00,,---,0.00,VWS V14.01,2013-09-28 00:26:00,
2013-09-27 20:27:00,73.2,49.4,30.01,SW,225,0.0,0.0,43,0.00,,---,0.00,VWS V14.01,2013-09-28 00:27:00,
2013-09-27 20:28:00,73.2,49.4,30.01,SW,225,0.0,0.0,43,0.00,,---,0.00,VWS V14.01,2013-09-28 00:28:00,
2013-09-27 20:29:00,73.0,49.2,30.01,SW,225,0.0,0.0,43,0.00,,---,0.00,VWS V14.01,2013-09-28 00:29:00,
2013-09-27 20:30:00,73.0,49.2,30.01,SW,225,0.0,0.0,43,0.00,,---,0.00,VWS V14.01,2013-09-28 00:30:00,
2013-09-27 20:31:00,73.0,49.2,30.01,SW,225,0.0,0.0,43,0.00,,---,0.00,VWS V14.01,2013-09-28 00:31:00,
2013-09-27 20:32:00,73.0,49.2,30.01,SW,225,0.0,0.0,43,0.00,,---,0.00,VWS V14.01,2013-09-28 00:32:00,
2013-09-27 20:34:00,72.8,49.0,30.01,SW,225,0.0,0.0,43,0.00,,---,0.00,VWS V14.01,2013-09-28 00:34:00,
2013-09-27 20:35:00,72.8,49.0,30.01,SW,225,0.0,0.0,43,0.00,,---,0.00,VWS V14.01,2013-09-28 00:35:00,
2013-09-27 20:36:00,72.8,49.0,30.01,SW,225,0.0,0.0,43,0.00,,---,0.00,VWS V14.01,2013-09-28 00:36:00,
2013-09-27 20:37:00,72.6,48.8,30.01,SW,225,0.0,0.0,43,0.00,,---,0.00,VWS V14.01,2013-09-28 00:37:00,
2013-09-27 20:39:00,72.8,49.0,30.02,SW,225,0.0,0.0,43,0.00,,---,0.00,VWS V14.01,2013-09-28 00:39:00,
2013-09-27 20:41:00,72.8,49.0,30.01,SW,225,0.0,0.0,43,0.00,,---,0.00,VWS V14.01,2013-09-28 00:41:00,
2013-09-27 20:42:00,72.8,49.0,30.02,SW,225,0.0,0.0,43,0.00,,---,0.00,VWS V14.01,2013-09-28 00:42:00,
2013-09-27 20:43:00,72.6,48.8,30.02,SW,225,0.0,0.0,43,0.00,,---,0.00,VWS V14.01,2013-09-28 00:43:00,
2013-09-27 20:44:00,72.6,48.8,30.02,SW,225,0.0,0.0,43,0.00,,---,0.00,VWS V14.01,2013-09-28 00:44:00,
2013-09-27 20:46:00,72.6,48.8,30.02,SW,225,0.0,0.0,43,0.00,,---,0.00,VWS V14.01,2013-09-28 00:46:00,
2013-09-27 20:47:00,72.6,48.8,30.02,SW,225,0.0,0.0,43,0.00,,---,0.00,VWS V14.01,2013-09-28 00:47:00,
2013-09-27 20:48:00,72.6,48.8,30.02,SW,225,0.0,0.0,43,0.00,,---,0.00,VWS V14.01,2013-09-28 00:48:00,
2013-09-27 20:49:00,72.6,48.8,30.02,SW,225,0.0,0.0,43,0.00,,---,0.00,VWS V14.01,2013-09-28 00:49:00,
2013-09-27 20:52:00,72.6,49.5,30.02,SW,225,0.0,0.0,44,0.00,,---,0.00,VWS V14.01,2013-09-28 00:52:00,
2013-09-27 20:53:00,72.6,49.5,30.02,SW,225,0.0,0.0,44,0.00,,---,0.00,VWS V14.01,2013-09-28 00:53:00,
2013-09-27 20:55:00,72.6,49.5,30.02,SW,225,0.0,0.0,44,0.00,,---,0.00,VWS V14.01,2013-09-28 00:55:00,
2013-09-27 20:57:00,72.8,49.6,30.02,SW,225,0.0,0.0,44,0.00,,---,0.00,VWS V14.01,2013-09-28 00:57:00,
2013-09-27 20:59:00,72.8,49.6,30.02,SW,225,0.0,0.0,44,0.00,,---,0.00,VWS V14.01,2013-09-28 00:59:00,
2013-09-27 21:00:00,72.8,49.6,30.02,SW,225,0.0,0.0,44,0.00,,---,0.00,VWS V14.01,2013-09-28 01:00:00,
2013-09-27 21:02:00,72.8,49.6,30.02,SW,225,0.0,0.0,44,0.00,,---,0.00,VWS V14.01,2013-09-28 01:02:00,
2013-09-27 21:05:00,72.8,49.6,30.02,SW,225,0.0,0.0,44,0.00,,---,0.00,VWS V14.01,2013-09-28 01:05:00,
2013-09-27 21:07:00,72.8,49.6,30.02,SW,225,0.0,0.0,44,0.00,,---,0.00,VWS V14.01,2013-09-28 01:07:00,
2013-09-27 21:08:00,72.8,49.6,30.02,SW,225,0.0,0.0,44,0.00,,---,0.00,VWS V14.01,2013-09-28 01:08:00,
2013-09-27 21:10:00,72.8,49.6,30.02,SW,225,0.0,0.0,44,0.00,,---,0.00,VWS V14.01,2013-09-28 01:10:00,
2013-09-27 21:13:00,72.6,49.5,30.02,SW,225,0.0,0.0,44,0.00,,---,0.00,VWS V14.01,2013-09-28 01:13:00,
2013-09-27 21:16:00,72.3,49.2,30.02,SW,225,0.0,0.0,44,0.00,,---,0.00,VWS V14.01,2013-09-28 01:16:00,
2013-09-27 21:18:00,72.3,49.2,30.02,SW,225,0.0,0.0,44,0.00,,---,0.00,VWS V14.01,2013-09-28 01:18:00,
2013-09-27 21:19:00,72.3,49.2,30.02,SW,225,0.0,0.0,44,0.00,,---,0.00,VWS V14.01,2013-09-28 01:19:00,
2013-09-27 21:21:00,72.3,48.6,30.02,SW,225,0.0,0.0,43,0.00,,---,0.00,VWS V14.01,2013-09-28 01:21:00,
2013-09-27 21:23:00,72.1,48.4,30.02,SW,225,0.0,0.0,43,0.00,,---,0.00,VWS V14.01,2013-09-28 01:23:00,
2013-09-27 21:24:00,71.9,48.8,30.03,SW,225,0.0,0.0,44,0.00,,---,0.00,VWS V14.01,2013-09-28 01:24:00,
2013-09-27 21:25:00,71.9,48.8,30.03,SW,225,0.0,0.0,44,0.00,,---,0.00,VWS V14.01,2013-09-28 01:25:00,
2013-09-27 21:26:00,71.7,48.7,30.03,SW,225,0.0,0.0,44,0.00,,---,0.00,VWS V14.01,2013-09-28 01:26:00,
2013-09-27 21:28:00,71.5,47.8,30.03,SW,225,0.0,0.0,43,0.00,,---,0.00,VWS V14.01,2013-09-28 01:28:00,
2013-09-27 21:29:00,71.5,47.8,30.03,SW,225,0.0,0.0,43,0.00,,---,0.00,VWS V14.01,2013-09-28 01:29:00,
2013-09-27 21:30:00,71.4,47.8,30.03,SW,225,0.0,0.0,43,0.00,,---,0.00,VWS V14.01,2013-09-28 01:30:00,
2013-09-27 21:32:00,71.4,47.8,30.03,SW,225,0.0,0.0,43,0.00,,---,0.00,VWS V14.01,2013-09-28 01:32:00,
2013-09-27 21:34:00,71.2,47.6,30.02,SW,225,0.0,0.0,43,0.00,,---,0.00,VWS V14.01,2013-09-28 01:34:00,
2013-09-27 21:35:00,71.0,47.4,30.03,SW,225,0.0,0.0,43,0.00,,---,0.00,VWS V14.01,2013-09-28 01:35:00,
2013-09-27 21:36:00,71.0,47.4,30.03,SW,225,0.0,0.0,43,0.00,,---,0.00,VWS V14.01,2013-09-28 01:36:00,
2013-09-27 21:37:00,71.0,47.4,30.03,SW,225,0.0,0.0,43,0.00,,---,0.00,VWS V14.01,2013-09-28 01:37:00,
2013-09-27 21:39:00,71.0,47.4,30.03,SW,225,0.0,0.0,43,0.00,,---,0.00,VWS V14.01,2013-09-28 01:39:00,
2013-09-27 21:40:00,71.0,47.4,30.03,SW,225,0.0,0.0,43,0.00,,---,0.00,VWS V14.01,2013-09-28 01:40:00,
2013-09-27 21:41:00,70.8,47.2,30.03,SW,225,0.0,0.0,43,0.00,,---,0.00,VWS V14.01,2013-09-28 01:41:00,
2013-09-27 21:42:00,70.8,47.2,30.03,SW,225,0.0,0.0,43,0.00,,---,0.00,VWS V14.01,2013-09-28 01:42:00,
2013-09-27 21:44:00,70.8,47.2,30.03,SW,225,0.0,0.0,43,0.00,,---,0.00,VWS V14.01,2013-09-28 01:44:00,
2013-09-27 21:46:00,70.8,47.2,30.03,SW,225,0.0,0.0,43,0.00,,---,0.00,VWS V14.01,2013-09-28 01:46:00,
2013-09-27 21:48:00,70.6,47.0,30.03,SW,225,0.0,0.0,43,0.00,,---,0.00,VWS V14.01,2013-09-28 01:48:00,
2013-09-27 21:50:00,70.6,46.4,30.03,SW,225,0.0,0.0,42,0.00,,---,0.00,VWS V14.01,2013-09-28 01:50:00,
2013-09-27 21:51:00,70.6,46.4,30.03,SW,225,0.0,0.0,42,0.00,,---,0.00,VWS V14.01,2013-09-28 01:51:00,
2013-09-27 21:52:00,70.5,47.0,30.03,SW,225,0.0,0.0,43,0.00,,---,0.00,VWS V14.01,2013-09-28 01:52:00,
2013-09-27 21:53:00,70.5,47.0,30.03,SW,225,0.0,0.0,43,0.00,,---,0.00,VWS V14.01,2013-09-28 01:53:00,
2013-09-27 21:55:00,70.3,46.8,30.03,SW,225,0.0,0.0,43,0.00,,---,0.00,VWS V14.01,2013-09-28 01:55:00,
2013-09-27 21:56:00,70.1,46.6,30.04,SW,225,0.0,0.0,43,0.00,,---,0.00,VWS V14.01,2013-09-28 01:56:00,
2013-09-27 21:57:00,70.1,46.6,30.04,SW,225,0.0,0.0,43,0.00,,---,0.00,VWS V14.01,2013-09-28 01:57:00,
2013-09-27 21:58:00,70.1,46.6,30.04,SW,225,0.0,0.0,43,0.00,,---,0.00,VWS V14.01,2013-09-28 01:58:00,
2013-09-27 21:59:00,70.1,46.6,30.03,SW,225,0.0,0.0,43,0.00,,---,0.00,VWS V14.01,2013-09-28 01:59:00,
2013-09-27 22:00:00,70.3,47.4,30.03,SW,225,0.0,0.0,44,0.00,,---,0.00,VWS V14.01,2013-09-28 02:00:00,
2013-09-27 22:01:00,70.3,47.4,30.03,SW,225,0.0,0.0,44,0.00,,---,0.00,VWS V14.01,2013-09-28 02:01:00,
2013-09-27 22:03:00,70.3,47.4,30.03,SW,225,0.0,0.0,44,0.00,,---,0.00,VWS V14.01,2013-09-28 02:03:00,
2013-09-27 22:04:00,70.5,47.6,30.03,SW,225,0.0,0.0,44,0.00,,---,0.00,VWS V14.01,2013-09-28 02:04:00,
2013-09-27 22:05:00,70.5,47.6,30.03,SW,225,0.0,0.0,44,0.00,,---,0.00,VWS V14.01,2013-09-28 02:05:00,
2013-09-27 22:07:00,70.5,47.6,30.03,SW,225,0.0,0.0,44,0.00,,---,0.00,VWS V14.01,2013-09-28 02:07:00,
2013-09-27 22:08:00,70.6,47.7,30.03,SW,225,0.0,0.0,44,0.00,,---,0.00,VWS V14.01,2013-09-28 02:08:00,
2013-09-27 22:09:00,70.8,47.8,30.03,SW,225,0.0,0.0,44,0.00,,---,0.00,VWS V14.01,2013-09-28 02:09:00,
2013-09-27 22:11:00,70.8,47.8,30.03,SW,225,0.0,0.0,44,0.00,,---,0.00,VWS V14.01,2013-09-28 02:11:00,
2013-09-27 22:12:00,71.0,47.4,30.03,SW,225,0.0,0.0,43,0.00,,---,0.00,VWS V14.01,2013-09-28 02:12:00,
2013-09-27 22:13:00,71.0,47.4,30.03,SW,225,0.0,0.0,43,0.00,,---,0.00,VWS V14.01,2013-09-28 02:13:00,
2013-09-27 22:15:00,71.2,47.6,30.03,SW,225,0.0,0.0,43,0.00,,---,0.00,VWS V14.01,2013-09-28 02:15:00,
2013-09-27 22:16:00,71.2,47.6,30.03,SW,225,0.0,0.0,43,0.00,,---,0.00,VWS V14.01,2013-09-28 02:16:00,
2013-09-27 22:17:00,71.0,47.4,30.04,SW,225,0.0,0.0,43,0.00,,---,0.00,VWS V14.01,2013-09-28 02:17:00,
2013-09-27 22:18:00,71.0,47.4,30.03,SW,225,0.0,0.0,43,0.00,,---,0.00,VWS V14.01,2013-09-28 02:18:00,
2013-09-27 22:19:00,71.0,47.4,30.03,SW,225,0.0,0.0,43,0.00,,---,0.00,VWS V14.01,2013-09-28 02:19:00,
2013-09-27 22:20:00,71.2,47.6,30.03,SW,225,0.0,0.0,43,0.00,,---,0.00,VWS V14.01,2013-09-28 02:20:00,
2013-09-27 22:21:00,71.2,47.6,30.03,SW,225,0.0,0.0,43,0.00,,---,0.00,VWS V14.01,2013-09-28 02:21:00,
2013-09-27 22:22:00,71.5,47.8,30.04,SW,225,0.0,0.0,43,0.00,,---,0.00,VWS V14.01,2013-09-28 02:22:00,
2013-09-27 22:23:00,71.5,47.8,30.03,SW,225,0.0,0.0,43,0.00,,---,0.00,VWS V14.01,2013-09-28 02:23:00,
2013-09-27 22:24:00,71.5,47.8,30.04,SW,225,0.0,0.0,43,0.00,,---,0.00,VWS V14.01,2013-09-28 02:24:00,
2013-09-27 22:25:00,71.5,47.8,30.04,SW,225,0.0,0.0,43,0.00,,---,0.00,VWS V14.01,2013-09-28 02:25:00,
2013-09-27 22:26:00,71.4,47.8,30.03,SW,225,0.0,0.0,43,0.00,,---,0.00,VWS V14.01,2013-09-28 02:26:00,
2013-09-27 22:27:00,71.4,47.8,30.03,SW,225,0.0,0.0,43,0.00,,---,0.00,VWS V14.01,2013-09-28 02:27:00,
2013-09-27 22:29:00,71.4,47.8,30.03,SW,225,0.0,0.0,43,0.00,,---,0.00,VWS V14.01,2013-09-28 02:29:00,
2013-09-27 22:30:00,71.2,47.6,30.03,SW,225,0.0,0.0,43,0.00,,---,0.00,VWS V14.01,2013-09-28 02:30:00,
2013-09-27 22:31:00,71.2,47.6,30.03,SW,225,0.0,0.0,43,0.00,,---,0.00,VWS V14.01,2013-09-28 02:31:00,
2013-09-27 22:33:00,70.5,47.6,30.03,SW,225,0.0,0.0,44,0.00,,---,0.00,VWS V14.01,2013-09-28 02:33:00,
2013-09-27 22:34:00,70.5,47.6,30.03,SW,225,0.0,0.0,44,0.00,,---,0.00,VWS V14.01,2013-09-28 02:34:00,
2013-09-27 22:35:00,69.7,48.0,30.03,SW,225,0.0,0.0,46,0.00,,---,0.00,VWS V14.01,2013-09-28 02:35:00,
2013-09-27 22:36:00,69.7,48.0,30.03,SW,225,0.0,0.0,46,0.00,,---,0.00,VWS V14.01,2013-09-28 02:36:00,
2013-09-27 22:37:00,68.8,48.3,30.04,SW,225,0.0,0.0,48,0.00,,---,0.00,VWS V14.01,2013-09-28 02:37:00,
2013-09-27 22:39:00,68.5,48.6,30.04,SW,225,0.0,0.0,49,0.00,,---,0.00,VWS V14.01,2013-09-28 02:39:00,
2013-09-27 22:40:00,68.5,48.6,30.04,SW,225,0.0,0.0,49,0.00,,---,0.00,VWS V14.01,2013-09-28 02:40:00,
2013-09-27 22:42:00,67.9,49.1,30.04,SW,225,0.0,0.0,51,0.00,,---,0.00,VWS V14.01,2013-09-28 02:42:00,
2013-09-27 22:43:00,67.8,50.1,30.04,SW,225,0.0,0.0,53,0.00,,---,0.00,VWS V14.01,2013-09-28 02:43:00,
2013-09-27 22:44:00,67.8,50.1,30.04,SW,225,0.0,0.0,53,0.00,,---,0.00,VWS V14.01,2013-09-28 02:44:00,
2013-09-27 22:45:00,67.2,50.0,30.04,SW,225,0.0,0.0,54,0.00,,---,0.00,VWS V14.01,2013-09-28 02:45:00,
2013-09-27 22:48:00,67.2,50.0,30.03,SW,225,0.0,0.0,54,0.00,,---,0.00,VWS V14.01,2013-09-28 02:48:00,
2013-09-27 22:49:00,66.9,50.2,30.04,SW,225,0.0,0.0,55,0.00,,---,0.00,VWS V14.01,2013-09-28 02:49:00,
2013-09-27 22:51:00,66.7,50.5,30.04,SW,225,0.0,0.0,56,0.00,,---,0.00,VWS V14.01,2013-09-28 02:51:00,
2013-09-27 22:53:00,66.5,50.8,30.04,SW,225,0.0,0.0,57,0.00,,---,0.00,VWS V14.01,2013-09-28 02:53:00,
2013-09-27 22:54:00,66.5,50.8,30.04,SW,225,0.0,0.0,57,0.00,,---,0.00,VWS V14.01,2013-09-28 02:54:00,
2013-09-27 22:56:00,66.3,51.1,30.04,SW,225,0.0,0.0,58,0.00,,---,0.00,VWS V14.01,2013-09-28 02:56:00,
2013-09-27 22:59:00,66.1,51.4,30.04,SW,225,0.0,0.0,59,0.00,,---,0.00,VWS V14.01,2013-09-28 02:59:00,
2013-09-27 23:01:00,66.1,51.4,30.04,SW,225,0.0,0.0,59,0.00,,---,0.00,VWS V14.01,2013-09-28 03:01:00,
2013-09-27 23:02:00,66.1,51.8,30.04,SW,225,0.0,0.0,60,0.00,,---,0.00,VWS V14.01,2013-09-28 03:02:00,
2013-09-27 23:04:00,66.1,51.8,30.04,SW,225,0.0,0.0,60,0.00,,---,0.00,VWS V14.01,2013-09-28 03:04:00,
2013-09-27 23:05:00,66.1,51.8,30.04,SW,225,0.0,0.0,60,0.00,,---,0.00,VWS V14.01,2013-09-28 03:05:00,
2013-09-27 23:06:00,66.1,51.8,30.04,SW,225,0.0,0.0,60,0.00,,---,0.00,VWS V14.01,2013-09-28 03:06:00,
2013-09-27 23:07:00,66.1,51.8,30.04,SW,225,0.0,0.0,60,0.00,,---,0.00,VWS V14.01,2013-09-28 03:07:00,
2013-09-27 23:09:00,65.6,51.8,30.04,SW,225,0.0,0.0,61,0.00,,---,0.00,VWS V14.01,2013-09-28 03:09:00,
2013-09-27 23:10:00,65.6,51.8,30.04,SW,225,0.0,0.0,61,0.00,,---,0.00,VWS V14.01,2013-09-28 03:10:00,
2013-09-27 23:12:00,65.6,51.8,30.04,SW,225,0.0,0.0,61,0.00,,---,0.00,VWS V14.01,2013-09-28 03:12:00,
2013-09-27 23:14:00,65.4,51.6,30.04,SW,225,0.0,0.0,61,0.00,,---,0.00,VWS V14.01,2013-09-28 03:14:00,
2013-09-27 23:15:00,65.4,51.6,30.04,SW,225,0.0,0.0,61,0.00,,---,0.00,VWS V14.01,2013-09-28 03:15:00,
2013-09-27 23:17:00,65.4,51.6,30.04,SW,225,0.0,0.0,61,0.00,,---,0.00,VWS V14.01,2013-09-28 03:17:00,
2013-09-27 23:18:00,65.4,51.6,30.04,SW,225,0.0,0.0,61,0.00,,---,0.00,VWS V14.01,2013-09-28 03:18:00,
2013-09-27 23:19:00,65.2,51.9,30.04,SW,225,0.0,0.0,62,0.00,,---,0.00,VWS V14.01,2013-09-28 03:19:00,
2013-09-27 23:20:00,65.2,51.9,30.04,SW,225,0.0,0.0,62,0.00,,---,0.00,VWS V14.01,2013-09-28 03:20:00,
2013-09-27 23:22:00,65.1,51.8,30.04,SW,225,0.0,0.0,62,0.00,,---,0.00,VWS V14.01,2013-09-28 03:22:00,
2013-09-27 23:24:00,64.9,51.6,30.04,SW,225,0.0,0.0,62,0.00,,---,0.00,VWS V14.01,2013-09-28 03:24:00,
2013-09-27 23:25:00,64.9,51.6,30.04,SW,225,0.0,0.0,62,0.00,,---,0.00,VWS V14.01,2013-09-28 03:25:00,
2013-09-27 23:28:00,64.7,51.8,30.04,SW,225,0.0,0.0,63,0.00,,---,0.00,VWS V14.01,2013-09-28 03:28:00,
2013-09-27 23:30:00,64.7,51.8,30.04,SW,225,0.0,0.0,63,0.00,,---,0.00,VWS V14.01,2013-09-28 03:30:00,
2013-09-27 23:31:00,64.7,51.8,30.04,SW,225,0.0,0.0,63,0.00,,---,0.00,VWS V14.01,2013-09-28 03:31:00,
2013-09-27 23:33:00,64.5,52.1,30.04,SW,225,0.0,0.0,64,0.00,,---,0.00,VWS V14.01,2013-09-28 03:33:00,
2013-09-27 23:35:00,64.5,52.1,30.04,SW,225,0.0,0.0,64,0.00,,---,0.00,VWS V14.01,2013-09-28 03:35:00,
2013-09-27 23:36:00,64.5,52.1,30.04,SW,225,0.0,0.0,64,0.00,,---,0.00,VWS V14.01,2013-09-28 03:36:00,
2013-09-27 23:37:00,64.5,52.1,30.04,SW,225,0.0,0.0,64,0.00,,---,0.00,VWS V14.01,2013-09-28 03:37:00,
2013-09-27 23:38:00,64.3,51.9,30.04,SW,225,0.0,0.0,64,0.00,,---,0.00,VWS V14.01,2013-09-28 03:38:00,
2013-09-27 23:41:00,64.3,51.9,30.05,SW,225,0.0,0.0,64,0.00,,---,0.00,VWS V14.01,2013-09-28 03:41:00,
2013-09-27 23:42:00,64.3,51.9,30.05,SW,225,0.0,0.0,64,0.00,,---,0.00,VWS V14.01,2013-09-28 03:42:00,
2013-09-27 23:43:00,64.3,51.9,30.05,SW,225,0.0,0.0,64,0.00,,---,0.00,VWS V14.01,2013-09-28 03:43:00,
2013-09-27 23:46:00,64.3,52.3,30.05,SW,225,0.0,0.0,65,0.00,,---,0.00,VWS V14.01,2013-09-28 03:46:00,
2013-09-27 23:47:00,64.3,52.3,30.05,SW,225,0.0,0.0,65,0.00,,---,0.00,VWS V14.01,2013-09-28 03:47:00,
2013-09-27 23:48:00,64.2,52.2,30.04,SW,225,0.0,0.0,65,0.00,,---,0.00,VWS V14.01,2013-09-28 03:48:00,
2013-09-27 23:49:00,64.2,52.2,30.04,SW,225,0.0,0.0,65,0.00,,---,0.00,VWS V14.01,2013-09-28 03:49:00,
2013-09-27 23:51:00,64.0,52.0,30.05,SW,225,0.0,0.0,65,0.00,,---,0.00,VWS V14.01,2013-09-28 03:51:00,
2013-09-27 23:52:00,64.0,52.0,30.05,SW,225,0.0,0.0,65,0.00,,---,0.00,VWS V14.01,2013-09-28 03:52:00,
2013-09-27 23:54:00,64.0,52.0,30.05,SW,225,0.0,0.0,65,0.00,,---,0.00,VWS V14.01,2013-09-28 03:54:00,
2013-09-27 23:57:00,64.0,52.0,30.05,SW,225,0.0,0.0,65,0.00,,---,0.00,VWS V14.01,2013-09-28 03:57:00,
2013-09-27 23:59:00,64.0,52.0,30.05,SW,225,0.0,0.0,65,0.00,,---,0.00,VWS V14.01,2013-09-28 03:59:00,